Time,TemperatureF,DewpointF,PressureIn,WindDirection,WindDirectionDegrees,WindSpeedMPH,WindSpeedGustMPH,Humidity,HourlyPrecipIn,Conditions,Clouds,dailyrainin,SolarRadiationWatts/m^2,SoftwareType,DateUTC
2013-01-31 00:01:00,13.5,10.6,29.88,WNW,294,9.0,9.0,88,0.00,,,0.00,0,Wunderground v.1.15,2013-01-31 06:01:00,
2013-01-31 00:03:00,13.5,10.6,29.88,WNW,295,10.0,10.0,88,0.00,,,0.00,0,Wunderground v.1.15,2013-01-31 06:03:00,
2013-01-31 00:06:00,13.4,10.5,29.88,WNW,298,9.0,10.0,88,0.00,,,0.00,0,Wunderground v.1.15,2013-01-31 06:06:00,
2013-01-31 00:10:00,13.3,10.2,29.88,WNW,292,10.0,10.0,87,0.00,,,0.00,0,Wunderground v.1.15,2013-01-31 06:10:00,
2013-01-31 00:12:00,13.2,10.1,29.88,WNW,294,12.0,12.0,87,0.00,,,0.00,0,Wunderground v.1.15,2013-01-31 06:12:00,
2013-01-31 00:15:00,13.2,10.1,29.88,WNW,302,13.0,14.0,87,0.00,,,0.00,0,Wunderground v.1.15,2013-01-31 06:15:00,
2013-01-31 00:17:00,13.2,9.8,29.89,WNW,299,13.0,14.0,86,0.00,,,0.00,0,Wunderground v.1.15,2013-01-31 06:17:00,
2013-01-31 00:22:00,13.0,9.6,29.89,NW,306,16.0,16.0,86,0.00,,,0.00,0,Wunderground v.1.15,2013-01-31 06:22:00,
2013-01-31 00:23:00,13.0,9.3,29.89,WNW,298,13.0,16.0,85,0.00,,,0.00,0,Wunderground v.1.15,2013-01-31 06:23:00,
2013-01-31 00:27:00,12.9,9.2,29.89,NW,308,15.0,17.0,85,0.00,,,0.00,0,Wunderground v.1.15,2013-01-31 06:27:00,
2013-01-31 00:30:00,12.8,9.1,29.89,WNW,296,14.0,14.0,85,0.00,,,0.00,0,Wunderground v.1.15,2013-01-31 06:30:00,
2013-01-31 00:31:00,12.8,9.1,29.89,WNW,297,15.0,15.0,85,0.00,,,0.00,0,Wunderground v.1.15,2013-01-31 06:31:00,
2013-01-31 00:34:00,12.7,9.3,29.89,WNW,300,10.0,15.0,86,0.00,,,0.00,0,Wunderground v.1.15,2013-01-31 06:34:00,
2013-01-31 00:36:00,12.7,9.0,29.89,WNW,299,10.0,15.0,85,0.00,,,0.00,0,Wunderground v.1.15,2013-01-31 06:36:00,
2013-01-31 00:39:00,12.6,8.9,29.89,WNW,298,13.0,15.0,85,0.00,,,0.00,0,Wunderground v.1.15,2013-01-31 06:39:00,
2013-01-31 00:40:00,12.6,8.9,29.89,WNW,299,10.0,12.0,85,0.00,,,0.00,0,Wunderground v.1.15,2013-01-31 06:40:00,
2013-01-31 00:42:00,12.5,9.1,29.89,WNW,297,11.0,12.0,86,0.00,,,0.00,0,Wunderground v.1.15,2013-01-31 06:42:00,
2013-01-31 00:47:00,12.5,9.1,29.89,WNW,302,9.0,12.0,86,0.00,,,0.00,0,Wunderground v.1.15,2013-01-31 06:47:00,
2013-01-31 00:48:00,12.5,9.1,29.89,WNW,293,11.0,12.0,86,0.00,,,0.00,0,Wunderground v.1.15,2013-01-31 06:48:00,
2013-01-31 00:49:00,12.4,9.0,29.89,WNW,293,9.0,12.0,86,0.00,,,0.00,0,Wunderground v.1.15,2013-01-31 06:49:00,
2013-01-31 00:50:00,12.4,9.0,29.89,WNW,296,9.0,12.0,86,0.00,,,0.00,0,Wunderground v.1.15,2013-01-31 06:50:00,
2013-01-31 00:52:00,12.4,9.0,29.89,WNW,293,9.0,12.0,86,0.00,,,0.00,0,Wunderground v.1.15,2013-01-31 06:52:00,
2013-01-31 00:55:00,12.3,8.9,29.89,WNW,290,10.0,12.0,86,0.00,,,0.00,0,Wunderground v.1.15,2013-01-31 06:55:00,
2013-01-31 00:57:00,12.3,8.9,29.89,WNW,292,13.0,13.0,86,0.00,,,0.00,0,Wunderground v.1.15,2013-01-31 06:57:00,
2013-01-31 01:00:00,12.3,8.9,29.89,WNW,290,13.0,13.0,86,0.00,,,0.00,0,Wunderground v.1.15,2013-01-31 07:00:00,
2013-01-31 01:01:00,12.2,9.1,29.89,WNW,292,14.0,14.0,87,0.00,,,0.00,0,Wunderground v.1.15,2013-01-31 07:01:00,
2013-01-31 01:02:00,12.2,9.1,29.89,WNW,302,13.0,14.0,87,0.00,,,0.00,0,Wunderground v.1.15,2013-01-31 07:02:00,
2013-01-31 01:05:00,12.1,9.0,29.89,WNW,297,14.0,16.0,87,0.00,,,0.00,0,Wunderground v.1.15,2013-01-31 07:05:00,
2013-01-31 01:06:00,12.1,8.7,29.89,WNW,292,16.0,16.0,86,0.00,,,0.00,0,Wunderground v.1.15,2013-01-31 07:06:00,
2013-01-31 01:10:00,12.1,8.7,29.89,WNW,292,14.0,14.0,86,0.00,,,0.00,0,Wunderground v.1.15,2013-01-31 07:10:00,
2013-01-31 01:11:00,12.0,8.6,29.89,WNW,297,15.0,15.0,86,0.00,,,0.00,0,Wunderground v.1.15,2013-01-31 07:11:00,
2013-01-31 01:13:00,12.0,8.6,29.89,WNW,300,12.0,15.0,86,0.00,,,0.00,0,Wunderground v.1.15,2013-01-31 07:13:00,
2013-01-31 01:14:00,12.0,8.6,29.89,WNW,300,13.0,15.0,86,0.00,,,0.00,0,Wunderground v.1.15,2013-01-31 07:14:00,
2013-01-31 01:18:00,11.9,8.5,29.89,WNW,303,13.0,15.0,86,0.00,,,0.00,0,Wunderground v.1.15,2013-01-31 07:18:00,
2013-01-31 01:19:00,11.9,8.5,29.90,WNW,294,12.0,15.0,86,0.00,,,0.00,0,Wunderground v.1.15,2013-01-31 07:19:00,
2013-01-31 01:21:00,11.8,8.4,29.90,WNW,299,13.0,13.0,86,0.00,,,0.00,0,Wunderground v.1.15,2013-01-31 07:21:00,
2013-01-31 01:24:00,11.7,8.3,29.90,WNW,289,13.0,13.0,86,0.00,,,0.00,0,Wunderground v.1.15,2013-01-31 07:24:00,
2013-01-31 01:26:00,11.7,8.3,29.90,WNW,290,10.0,13.0,86,0.00,,,0.00,0,Wunderground v.1.15,2013-01-31 07:26:00,
2013-01-31 01:27:00,11.7,8.3,29.90,WNW,295,11.0,13.0,86,0.00,,,0.00,0,Wunderground v.1.15,2013-01-31 07:27:00,
2013-01-31 01:29:00,11.6,8.2,29.89,WNW,296,9.0,13.0,86,0.00,,,0.00,0,Wunderground v.1.15,2013-01-31 07:29:00,
2013-01-31 01:31:00,11.6,8.2,29.90,WNW,296,13.0,13.0,86,0.00,,,0.00,0,Wunderground v.1.15,2013-01-31 07:31:00,
2013-01-31 01:32:00,11.6,8.2,29.90,WNW,291,14.0,14.0,86,0.00,,,0.00,0,Wunderground v.1.15,2013-01-31 07:32:00,
2013-01-31 01:37:00,11.4,8.0,29.90,WNW,292,13.0,14.0,86,0.00,,,0.00,0,Wunderground v.1.15,2013-01-31 07:37:00,
2013-01-31 01:40:00,11.3,7.9,29.90,WNW,297,14.0,14.0,86,0.00,,,0.00,0,Wunderground v.1.15,2013-01-31 07:40:00,
2013-01-31 01:42:00,11.3,7.9,29.90,WNW,294,11.0,14.0,86,0.00,,,0.00,0,Wunderground v.1.15,2013-01-31 07:42:00,
2013-01-31 01:47:00,11.2,7.8,29.89,WNW,290,15.0,16.0,86,0.00,,,0.00,0,Wunderground v.1.15,2013-01-31 07:47:00,
2013-01-31 01:48:00,11.2,7.8,29.89,WNW,293,18.0,18.0,86,0.00,,,0.00,0,Wunderground v.1.15,2013-01-31 07:48:00,
2013-01-31 01:50:00,11.1,7.7,29.89,WNW,296,18.0,18.0,86,0.00,,,0.00,0,Wunderground v.1.15,2013-01-31 07:50:00,
2013-01-31 01:51:00,11.2,7.8,29.90,WNW,296,17.0,18.0,86,0.00,,,0.00,0,Wunderground v.1.15,2013-01-31 07:51:00,
2013-01-31 01:54:00,11.1,7.5,29.90,WNW,294,17.0,21.0,85,0.00,,,0.00,0,Wunderground v.1.15,2013-01-31 07:54:00,
2013-01-31 01:56:00,11.1,7.5,29.90,WNW,298,17.0,21.0,85,0.00,,,0.00,0,Wunderground v.1.15,2013-01-31 07:56:00,
2013-01-31 01:58:00,11.0,7.4,29.90,WNW,296,18.0,21.0,85,0.00,,,0.00,0,Wunderground v.1.15,2013-01-31 07:58:00,
2013-01-31 02:01:00,10.9,7.3,29.90,WNW,296,17.0,17.0,85,0.00,,,0.00,0,Wunderground v.1.15,2013-01-31 08:01:00,
2013-01-31 02:02:00,10.9,7.3,29.90,WNW,289,16.0,17.0,85,0.00,,,0.00,0,Wunderground v.1.15,2013-01-31 08:02:00,
2013-01-31 02:03:00,10.9,7.3,29.90,WNW,296,18.0,18.0,85,0.00,,,0.00,0,Wunderground v.1.15,2013-01-31 08:03:00,
2013-01-31 02:06:00,10.8,7.2,29.91,WNW,301,18.0,19.0,85,0.00,,,0.00,0,Wunderground v.1.15,2013-01-31 08:06:00,
2013-01-31 02:07:00,10.8,7.2,29.91,WNW,294,15.0,19.0,85,0.00,,,0.00,0,Wunderground v.1.15,2013-01-31 08:07:00,
2013-01-31 02:08:00,10.8,7.2,29.90,WNW,298,16.0,19.0,85,0.00,,,0.00,0,Wunderground v.1.15,2013-01-31 08:08:00,
2013-01-31 02:10:00,10.8,7.2,29.91,WNW,292,16.0,17.0,85,0.00,,,0.00,0,Wunderground v.1.15,2013-01-31 08:10:00,
2013-01-31 02:13:00,10.7,7.1,29.91,WNW,292,16.0,17.0,85,0.00,,,0.00,0,Wunderground v.1.15,2013-01-31 08:13:00,
2013-01-31 02:16:00,10.7,7.1,29.91,WNW,288,14.0,17.0,85,0.00,,,0.00,0,Wunderground v.1.15,2013-01-31 08:16:00,
2013-01-31 02:18:00,10.6,7.0,29.91,WNW,293,15.0,17.0,85,0.00,,,0.00,0,Wunderground v.1.15,2013-01-31 08:18:00,
2013-01-31 02:22:00,10.5,6.9,29.91,WNW,291,13.0,15.0,85,0.00,,,0.00,0,Wunderground v.1.15,2013-01-31 08:22:00,
2013-01-31 02:23:00,10.5,6.9,29.91,WNW,288,12.0,15.0,85,0.00,,,0.00,0,Wunderground v.1.15,2013-01-31 08:23:00,
2013-01-31 02:24:00,10.4,6.8,29.91,WNW,290,11.0,15.0,85,0.00,,,0.00,0,Wunderground v.1.15,2013-01-31 08:24:00,
2013-01-31 02:28:00,10.4,7.0,29.91,WNW,285,13.0,15.0,86,0.00,,,0.00,0,Wunderground v.1.15,2013-01-31 08:28:00,
2013-01-31 02:29:00,10.4,7.0,29.91,WNW,286,11.0,15.0,86,0.00,,,0.00,0,Wunderground v.1.15,2013-01-31 08:29:00,
2013-01-31 02:31:00,10.3,6.9,29.91,West,277,11.0,13.0,86,0.00,,,0.00,0,Wunderground v.1.15,2013-01-31 08:31:00,
2013-01-31 02:34:00,10.3,6.9,29.91,WNW,286,11.0,15.0,86,0.00,,,0.00,0,Wunderground v.1.15,2013-01-31 08:34:00,
2013-01-31 02:35:00,10.2,6.8,29.92,West,281,11.0,15.0,86,0.00,,,0.00,0,Wunderground v.1.15,2013-01-31 08:35:00,
2013-01-31 02:36:00,10.2,6.8,29.92,WNW,283,14.0,15.0,86,0.00,,,0.00,0,Wunderground v.1.15,2013-01-31 08:36:00,
2013-01-31 02:40:00,10.1,6.7,29.91,WNW,285,13.0,13.0,86,0.00,,,0.00,0,Wunderground v.1.15,2013-01-31 08:40:00,
2013-01-31 02:41:00,10.1,6.7,29.91,West,281,11.0,13.0,86,0.00,,,0.00,0,Wunderground v.1.15,2013-01-31 08:41:00,
2013-01-31 02:46:00,10.0,6.4,29.92,West,276,12.0,16.0,85,0.00,,,0.00,0,Wunderground v.1.15,2013-01-31 08:46:00,
2013-01-31 02:47:00,10.0,6.4,29.92,West,281,11.0,16.0,85,0.00,,,0.00,0,Wunderground v.1.15,2013-01-31 08:47:00,
2013-01-31 02:52:00,9.9,6.3,29.92,WNW,288,10.0,12.0,85,0.00,,,0.00,0,Wunderground v.1.15,2013-01-31 08:52:00,
2013-01-31 02:54:00,9.9,6.3,29.92,WNW,288,11.0,14.0,85,0.00,,,0.00,0,Wunderground v.1.15,2013-01-31 08:54:00,
2013-01-31 02:57:00,9.9,6.3,29.92,WNW,291,13.0,15.0,85,0.00,,,0.00,0,Wunderground v.1.15,2013-01-31 08:57:00,
2013-01-31 02:59:00,9.8,6.2,29.92,WNW,291,13.0,15.0,85,0.00,,,0.00,0,Wunderground v.1.15,2013-01-31 08:59:00,
2013-01-31 03:03:00,9.8,6.2,29.92,WNW,289,12.0,15.0,85,0.00,,,0.00,0,Wunderground v.1.15,2013-01-31 09:03:00,
2013-01-31 03:06:00,9.8,6.2,29.92,WNW,289,14.0,16.0,85,0.00,,,0.00,0,Wunderground v.1.15,2013-01-31 09:06:00,
2013-01-31 03:09:00,9.8,6.2,29.92,WNW,287,16.0,16.0,85,0.00,,,0.00,0,Wunderground v.1.15,2013-01-31 09:09:00,
2013-01-31 03:11:00,9.8,6.2,29.92,WNW,291,13.0,14.0,85,0.00,,,0.00,0,Wunderground v.1.15,2013-01-31 09:11:00,
2013-01-31 03:14:00,9.8,6.2,29.92,WNW,287,10.0,14.0,85,0.00,,,0.00,0,Wunderground v.1.15,2013-01-31 09:14:00,
2013-01-31 03:15:00,9.7,6.1,29.92,WNW,298,12.0,14.0,85,0.00,,,0.00,0,Wunderground v.1.15,2013-01-31 09:15:00,
2013-01-31 03:16:00,9.7,6.1,29.92,WNW,288,12.0,14.0,85,0.00,,,0.00,0,Wunderground v.1.15,2013-01-31 09:16:00,
2013-01-31 03:17:00,9.7,6.1,29.92,WNW,288,11.0,14.0,85,0.00,,,0.00,0,Wunderground v.1.15,2013-01-31 09:17:00,
2013-01-31 03:20:00,9.6,6.0,29.92,WNW,294,12.0,12.0,85,0.00,,,0.00,0,Wunderground v.1.15,2013-01-31 09:20:00,
2013-01-31 03:21:00,9.6,6.0,29.92,WNW,297,10.0,13.0,85,0.00,,,0.00,0,Wunderground v.1.15,2013-01-31 09:21:00,
2013-01-31 03:22:00,9.6,6.0,29.92,WNW,290,10.0,13.0,85,0.00,,,0.00,0,Wunderground v.1.15,2013-01-31 09:22:00,
2013-01-31 03:25:00,9.5,5.9,29.92,WNW,290,11.0,13.0,85,0.00,,,0.00,0,Wunderground v.1.15,2013-01-31 09:25:00,
2013-01-31 03:27:00,9.5,5.9,29.92,WNW,292,9.0,13.0,85,0.00,,,0.00,0,Wunderground v.1.15,2013-01-31 09:27:00,
2013-01-31 03:28:00,9.4,5.8,29.92,WNW,292,8.0,13.0,85,0.00,,,0.00,0,Wunderground v.1.15,2013-01-31 09:28:00,
2013-01-31 03:29:00,9.4,5.8,29.92,WNW,294,11.0,13.0,85,0.00,,,0.00,0,Wunderground v.1.15,2013-01-31 09:29:00,
2013-01-31 03:32:00,9.4,5.8,29.92,WNW,292,11.0,12.0,85,0.00,,,0.00,0,Wunderground v.1.15,2013-01-31 09:32:00,
2013-01-31 03:34:00,9.4,5.8,29.92,WNW,294,10.0,12.0,85,0.00,,,0.00,0,Wunderground v.1.15,2013-01-31 09:34:00,
2013-01-31 03:35:00,9.3,5.7,29.92,WNW,293,13.0,13.0,85,0.00,,,0.00,0,Wunderground v.1.15,2013-01-31 09:35:00,
2013-01-31 03:36:00,9.3,5.7,29.92,WNW,302,13.0,13.0,85,0.00,,,0.00,0,Wunderground v.1.15,2013-01-31 09:36:00,
2013-01-31 03:38:00,9.3,5.7,29.92,WNW,296,10.0,15.0,85,0.00,,,0.00,0,Wunderground v.1.15,2013-01-31 09:38:00,
2013-01-31 03:40:00,9.2,5.6,29.92,WNW,293,11.0,11.0,85,0.00,,,0.00,0,Wunderground v.1.15,2013-01-31 09:40:00,
2013-01-31 03:42:00,9.2,5.9,29.92,WNW,297,10.0,13.0,86,0.00,,,0.00,0,Wunderground v.1.15,2013-01-31 09:42:00,
2013-01-31 03:45:00,9.2,5.9,29.92,WNW,298,12.0,13.0,86,0.00,,,0.00,0,Wunderground v.1.15,2013-01-31 09:45:00,
2013-01-31 03:46:00,9.2,5.9,29.92,WNW,284,14.0,14.0,86,0.00,,,0.00,0,Wunderground v.1.15,2013-01-31 09:46:00,
2013-01-31 03:47:00,9.1,5.5,29.92,WNW,292,12.0,14.0,85,0.00,,,0.00,0,Wunderground v.1.15,2013-01-31 09:47:00,
2013-01-31 03:48:00,9.2,5.6,29.92,WNW,291,11.0,14.0,85,0.00,,,0.00,0,Wunderground v.1.15,2013-01-31 09:48:00,
2013-01-31 03:51:00,9.1,5.5,29.92,WNW,298,16.0,19.0,85,0.00,,,0.00,0,Wunderground v.1.15,2013-01-31 09:51:00,
2013-01-31 03:53:00,9.0,5.4,29.92,WNW,290,16.0,19.0,85,0.00,,,0.00,0,Wunderground v.1.15,2013-01-31 09:53:00,
2013-01-31 03:56:00,8.9,5.1,29.92,WNW,289,17.0,19.0,84,0.00,,,0.00,0,Wunderground v.1.15,2013-01-31 09:56:00,
2013-01-31 03:57:00,8.8,4.7,29.92,WNW,284,18.0,19.0,83,0.00,,,0.00,0,Wunderground v.1.15,2013-01-31 09:57:00,
2013-01-31 03:59:00,8.7,4.6,29.92,WNW,294,15.0,19.0,83,0.00,,,0.00,0,Wunderground v.1.15,2013-01-31 09:59:00,
2013-01-31 04:02:00,8.6,4.2,29.93,NW,306,16.0,20.0,82,0.00,,,0.00,0,Wunderground v.1.15,2013-01-31 10:02:00,
2013-01-31 04:04:00,8.5,4.1,29.93,WNW,298,16.0,20.0,82,0.00,,,0.00,0,Wunderground v.1.15,2013-01-31 10:04:00,
2013-01-31 04:05:00,8.5,4.1,29.93,WNW,303,15.0,20.0,82,0.00,,,0.00,0,Wunderground v.1.15,2013-01-31 10:05:00,
2013-01-31 04:08:00,8.4,4.0,29.93,WNW,299,18.0,20.0,82,0.00,,,0.00,0,Wunderground v.1.15,2013-01-31 10:08:00,
2013-01-31 04:10:00,8.3,3.9,29.93,WNW,294,14.0,17.0,82,0.00,,,0.00,0,Wunderground v.1.15,2013-01-31 10:10:00,
2013-01-31 04:11:00,8.3,3.9,29.93,WNW,300,17.0,19.0,82,0.00,,,0.00,0,Wunderground v.1.15,2013-01-31 10:11:00,
2013-01-31 04:15:00,8.1,3.7,29.93,WNW,294,13.0,19.0,82,0.00,,,0.00,0,Wunderground v.1.15,2013-01-31 10:15:00,
2013-01-31 04:16:00,8.1,3.7,29.93,WNW,294,14.0,19.0,82,0.00,,,0.00,0,Wunderground v.1.15,2013-01-31 10:16:00,
2013-01-31 04:17:00,8.1,3.7,29.93,WNW,296,15.0,19.0,82,0.00,,,0.00,0,Wunderground v.1.15,2013-01-31 10:17:00,
2013-01-31 04:21:00,8.0,3.6,29.93,WNW,300,14.0,15.0,82,0.00,,,0.00,0,Wunderground v.1.15,2013-01-31 10:21:00,
2013-01-31 04:23:00,7.9,3.5,29.93,NW,305,14.0,16.0,82,0.00,,,0.00,0,Wunderground v.1.15,2013-01-31 10:23:00,
2013-01-31 04:24:00,7.9,3.5,29.93,WNW,296,16.0,17.0,82,0.00,,,0.00,0,Wunderground v.1.15,2013-01-31 10:24:00,
2013-01-31 04:26:00,7.8,3.4,29.94,WNW,297,15.0,17.0,82,0.00,,,0.00,0,Wunderground v.1.15,2013-01-31 10:26:00,
2013-01-31 04:28:00,7.8,3.4,29.93,WNW,298,15.0,17.0,82,0.00,,,0.00,0,Wunderground v.1.15,2013-01-31 10:28:00,
2013-01-31 04:31:00,7.7,3.1,29.93,WNW,292,19.0,19.0,81,0.00,,,0.00,0,Wunderground v.1.15,2013-01-31 10:31:00,
2013-01-31 04:33:00,7.6,3.0,29.93,WNW,298,12.0,19.0,81,0.00,,,0.00,0,Wunderground v.1.15,2013-01-31 10:33:00,
2013-01-31 04:36:00,7.6,3.0,29.94,WNW,300,14.0,19.0,81,0.00,,,0.00,0,Wunderground v.1.15,2013-01-31 10:36:00,
2013-01-31 04:38:00,7.5,2.9,29.94,NW,305,14.0,19.0,81,0.00,,,0.00,0,Wunderground v.1.15,2013-01-31 10:38:00,
2013-01-31 04:39:00,7.5,2.9,29.94,WNW,296,15.0,19.0,81,0.00,,,0.00,0,Wunderground v.1.15,2013-01-31 10:39:00,
2013-01-31 04:41:00,7.4,2.8,29.94,WNW,300,15.0,16.0,81,0.00,,,0.00,0,Wunderground v.1.15,2013-01-31 10:41:00,
2013-01-31 04:44:00,7.4,3.1,29.94,WNW,289,15.0,16.0,82,0.00,,,0.00,0,Wunderground v.1.15,2013-01-31 10:44:00,
2013-01-31 04:45:00,7.4,3.1,29.94,WNW,294,16.0,16.0,82,0.00,,,0.00,0,Wunderground v.1.15,2013-01-31 10:45:00,
2013-01-31 04:46:00,7.3,3.0,29.94,WNW,297,15.0,16.0,82,0.00,,,0.00,0,Wunderground v.1.15,2013-01-31 10:46:00,
2013-01-31 04:47:00,7.3,3.0,29.94,WNW,296,17.0,17.0,82,0.00,,,0.00,0,Wunderground v.1.15,2013-01-31 10:47:00,
2013-01-31 04:50:00,7.2,2.9,29.95,WNW,300,15.0,18.0,82,0.00,,,0.00,0,Wunderground v.1.15,2013-01-31 10:50:00,
2013-01-31 04:51:00,7.2,2.9,29.95,WNW,289,18.0,18.0,82,0.00,,,0.00,0,Wunderground v.1.15,2013-01-31 10:51:00,
2013-01-31 04:53:00,7.2,2.9,29.95,WNW,297,14.0,18.0,82,0.00,,,0.00,0,Wunderground v.1.15,2013-01-31 10:53:00,
2013-01-31 04:56:00,7.2,2.9,29.95,WNW,293,18.0,21.0,82,0.00,,,0.00,0,Wunderground v.1.15,2013-01-31 10:56:00,
2013-01-31 04:59:00,7.1,2.5,29.95,WNW,298,18.0,21.0,81,0.00,,,0.00,0,Wunderground v.1.15,2013-01-31 10:59:00,
2013-01-31 05:00:00,7.1,2.5,29.96,WNW,295,18.0,18.0,81,0.00,,,0.00,0,Wunderground v.1.15,2013-01-31 11:00:00,
2013-01-31 05:02:00,7.1,2.5,29.96,WNW,293,15.0,18.0,81,0.00,,,0.00,0,Wunderground v.1.15,2013-01-31 11:02:00,
2013-01-31 05:05:00,7.0,2.4,29.96,WNW,294,14.0,19.0,81,0.00,,,0.00,0,Wunderground v.1.15,2013-01-31 11:05:00,
2013-01-31 05:06:00,7.0,2.4,29.96,WNW,294,13.0,19.0,81,0.00,,,0.00,0,Wunderground v.1.15,2013-01-31 11:06:00,
2013-01-31 05:07:00,7.0,2.4,29.96,WNW,301,14.0,19.0,81,0.00,,,0.00,0,Wunderground v.1.15,2013-01-31 11:07:00,
2013-01-31 05:08:00,7.0,2.7,29.96,WNW,297,18.0,19.0,82,0.00,,,0.00,0,Wunderground v.1.15,2013-01-31 11:08:00,
2013-01-31 05:11:00,6.9,2.6,29.96,WNW,298,15.0,16.0,82,0.00,,,0.00,0,Wunderground v.1.15,2013-01-31 11:11:00,
2013-01-31 05:13:00,6.9,2.6,29.96,WNW,293,17.0,18.0,82,0.00,,,0.00,0,Wunderground v.1.15,2013-01-31 11:13:00,
2013-01-31 05:15:00,6.9,2.6,29.96,WNW,303,15.0,18.0,82,0.00,,,0.00,0,Wunderground v.1.15,2013-01-31 11:15:00,
2013-01-31 05:18:00,6.8,2.5,29.96,WNW,302,14.0,20.0,82,0.00,,,0.00,0,Wunderground v.1.15,2013-01-31 11:18:00,
2013-01-31 05:19:00,6.8,2.5,29.96,WNW,300,13.0,20.0,82,0.00,,,0.00,0,Wunderground v.1.15,2013-01-31 11:19:00,
2013-01-31 05:20:00,6.8,2.5,29.96,WNW,300,15.0,16.0,82,0.00,,,0.00,0,Wunderground v.1.15,2013-01-31 11:20:00,
2013-01-31 05:22:00,6.8,2.5,29.96,WNW,294,15.0,16.0,82,0.00,,,0.00,0,Wunderground v.1.15,2013-01-31 11:22:00,
2013-01-31 05:23:00,6.8,2.5,29.96,WNW,299,13.0,16.0,82,0.00,,,0.00,0,Wunderground v.1.15,2013-01-31 11:23:00,
2013-01-31 05:25:00,6.8,2.5,29.96,WNW,296,12.0,16.0,82,0.00,,,0.00,0,Wunderground v.1.15,2013-01-31 11:25:00,
2013-01-31 05:28:00,6.8,2.5,29.96,WNW,294,13.0,17.0,82,0.00,,,0.00,0,Wunderground v.1.15,2013-01-31 11:28:00,
2013-01-31 05:29:00,6.7,2.4,29.96,WNW,298,16.0,17.0,82,0.00,,,0.00,0,Wunderground v.1.15,2013-01-31 11:29:00,
2013-01-31 05:34:00,6.7,2.4,29.96,NW,304,17.0,19.0,82,0.00,,,0.00,0,Wunderground v.1.15,2013-01-31 11:34:00,
2013-01-31 05:36:00,6.7,2.4,29.96,NW,306,17.0,22.0,82,0.00,,,0.00,0,Wunderground v.1.15,2013-01-31 11:36:00,
2013-01-31 05:39:00,6.7,2.1,29.96,WNW,299,16.0,22.0,81,0.00,,,0.00,0,Wunderground v.1.15,2013-01-31 11:39:00,
2013-01-31 05:40:00,6.6,2.0,29.97,WNW,300,14.0,16.0,81,0.00,,,0.00,0,Wunderground v.1.15,2013-01-31 11:40:00,
2013-01-31 05:41:00,6.7,2.1,29.97,NW,307,14.0,18.0,81,0.00,,,0.00,0,Wunderground v.1.15,2013-01-31 11:41:00,
2013-01-31 05:42:00,6.6,2.0,29.96,WNW,299,16.0,18.0,81,0.00,,,0.00,0,Wunderground v.1.15,2013-01-31 11:42:00,
2013-01-31 05:45:00,6.6,2.0,29.97,NW,307,15.0,18.0,81,0.00,,,0.00,0,Wunderground v.1.15,2013-01-31 11:45:00,
2013-01-31 05:46:00,6.6,2.0,29.97,WNW,300,15.0,18.0,81,0.00,,,0.00,0,Wunderground v.1.15,2013-01-31 11:46:00,
2013-01-31 05:48:00,6.5,1.9,29.97,NW,306,18.0,18.0,81,0.00,,,0.00,0,Wunderground v.1.15,2013-01-31 11:48:00,
2013-01-31 05:51:00,6.5,1.9,29.97,NW,306,14.0,17.0,81,0.00,,,0.00,0,Wunderground v.1.15,2013-01-31 11:51:00,
2013-01-31 05:52:00,6.5,1.9,29.97,WNW,302,19.0,19.0,81,0.00,,,0.00,0,Wunderground v.1.15,2013-01-31 11:52:00,
2013-01-31 05:53:00,6.5,1.9,29.97,NW,313,13.0,19.0,81,0.00,,,0.00,0,Wunderground v.1.15,2013-01-31 11:53:00,
2013-01-31 05:56:00,6.4,1.8,29.97,WNW,301,19.0,19.0,81,0.00,,,0.00,0,Wunderground v.1.15,2013-01-31 11:56:00,
2013-01-31 05:58:00,6.3,1.7,29.97,NW,305,14.0,19.0,81,0.00,,,0.00,0,Wunderground v.1.15,2013-01-31 11:58:00,
2013-01-31 05:59:00,6.3,1.7,29.97,NW,308,13.0,19.0,81,0.00,,,0.00,0,Wunderground v.1.15,2013-01-31 11:59:00,
2013-01-31 06:04:00,6.2,1.4,29.97,WNW,301,19.0,21.0,80,0.00,,,0.00,0,Wunderground v.1.15,2013-01-31 12:04:00,
2013-01-31 06:05:00,6.2,1.4,29.97,NW,312,16.0,21.0,80,0.00,,,0.00,0,Wunderground v.1.15,2013-01-31 12:05:00,
2013-01-31 06:09:00,6.0,0.9,29.98,WNW,302,17.0,21.0,79,0.00,,,0.00,0,Wunderground v.1.15,2013-01-31 12:09:00,
2013-01-31 06:10:00,5.9,0.8,29.97,WNW,301,14.0,18.0,79,0.00,,,0.00,0,Wunderground v.1.15,2013-01-31 12:10:00,
2013-01-31 06:11:00,5.9,0.8,29.97,NW,313,16.0,19.0,79,0.00,,,0.00,0,Wunderground v.1.15,2013-01-31 12:11:00,
2013-01-31 06:14:00,5.9,0.8,29.98,WNW,303,13.0,19.0,79,0.00,,,0.00,0,Wunderground v.1.15,2013-01-31 12:14:00,
2013-01-31 06:16:00,5.8,0.7,29.98,WNW,302,16.0,20.0,79,0.00,,,0.00,0,Wunderground v.1.15,2013-01-31 12:16:00,
2013-01-31 06:17:00,5.8,0.7,29.98,WNW,299,17.0,20.0,79,0.00,,,0.00,0,Wunderground v.1.15,2013-01-31 12:17:00,
2013-01-31 06:22:00,5.7,0.6,29.98,NW,307,16.0,19.0,79,0.00,,,0.00,0,Wunderground v.1.15,2013-01-31 12:22:00,
2013-01-31 06:23:00,5.7,0.6,29.98,NW,313,20.0,20.0,79,0.00,,,0.00,0,Wunderground v.1.15,2013-01-31 12:23:00,
2013-01-31 06:25:00,5.7,0.6,29.98,NW,309,18.0,20.0,79,0.00,,,0.00,0,Wunderground v.1.15,2013-01-31 12:25:00,
2013-01-31 06:27:00,5.7,0.6,29.98,NW,312,19.0,20.0,79,0.00,,,0.00,0,Wunderground v.1.15,2013-01-31 12:27:00,
2013-01-31 06:28:00,5.7,0.6,29.98,NW,308,16.0,20.0,79,0.00,,,0.00,0,Wunderground v.1.15,2013-01-31 12:28:00,
2013-01-31 06:32:00,5.8,0.7,29.98,WNW,302,22.0,22.0,79,0.00,,,0.00,0,Wunderground v.1.15,2013-01-31 12:32:00,
2013-01-31 06:33:00,5.8,0.7,29.98,NW,306,17.0,22.0,79,0.00,,,0.00,0,Wunderground v.1.15,2013-01-31 12:33:00,
2013-01-31 06:34:00,5.8,0.7,29.98,NW,306,20.0,22.0,79,0.00,,,0.00,0,Wunderground v.1.15,2013-01-31 12:34:00,
2013-01-31 06:38:00,5.7,0.6,29.99,NW,312,20.0,22.0,79,0.00,,,0.00,0,Wunderground v.1.15,2013-01-31 12:38:00,
2013-01-31 06:39:00,5.8,0.7,29.99,NW,311,16.0,22.0,79,0.00,,,0.00,0,Wunderground v.1.15,2013-01-31 12:39:00,
2013-01-31 06:44:00,5.6,0.2,29.99,NW,312,21.0,22.0,78,0.00,,,0.00,0,Wunderground v.1.15,2013-01-31 12:44:00,
2013-01-31 06:45:00,5.6,0.2,29.99,NW,304,20.0,22.0,78,0.00,,,0.00,0,Wunderground v.1.15,2013-01-31 12:45:00,
2013-01-31 06:46:00,5.6,0.2,29.99,WNW,294,20.0,23.0,78,0.00,,,0.00,0,Wunderground v.1.15,2013-01-31 12:46:00,
2013-01-31 06:49:00,5.5,0.1,30.00,NW,304,21.0,23.0,78,0.00,,,0.00,0,Wunderground v.1.15,2013-01-31 12:49:00,
2013-01-31 06:51:00,5.4,-0.2,30.00,WNW,302,19.0,20.0,77,0.00,,,0.00,0,Wunderground v.1.15,2013-01-31 12:51:00,
2013-01-31 06:52:00,5.4,-0.2,30.00,NW,304,13.0,20.0,77,0.00,,,0.00,0,Wunderground v.1.15,2013-01-31 12:52:00,
2013-01-31 06:55:00,5.3,-0.3,30.00,WNW,301,15.0,22.0,77,0.00,,,0.00,0,Wunderground v.1.15,2013-01-31 12:55:00,
2013-01-31 06:56:00,5.3,-0.1,30.00,NW,309,15.0,22.0,78,0.00,,,0.00,0,Wunderground v.1.15,2013-01-31 12:56:00,
2013-01-31 06:57:00,5.3,-0.1,30.00,NW,313,17.0,22.0,78,0.00,,,0.00,0,Wunderground v.1.15,2013-01-31 12:57:00,
2013-01-31 06:58:00,5.3,-0.1,30.00,NW,310,16.0,22.0,78,0.00,,,0.00,0,Wunderground v.1.15,2013-01-31 12:58:00,
2013-01-31 07:00:00,5.3,-0.1,30.00,NW,304,16.0,17.0,78,0.00,,,0.00,0,Wunderground v.1.15,2013-01-31 13:00:00,
2013-01-31 07:01:00,5.3,-0.1,30.00,NW,309,15.0,17.0,78,0.00,,,0.00,0,Wunderground v.1.15,2013-01-31 13:01:00,
2013-01-31 07:03:00,5.2,-0.2,30.00,WNW,302,16.0,17.0,78,0.00,,,0.00,0,Wunderground v.1.15,2013-01-31 13:03:00,
2013-01-31 07:06:00,5.3,0.2,30.00,NW,305,18.0,18.0,79,0.00,,,0.00,0,Wunderground v.1.15,2013-01-31 13:06:00,
2013-01-31 07:07:00,5.3,0.2,30.00,NW,313,14.0,19.0,79,0.00,,,0.00,0,Wunderground v.1.15,2013-01-31 13:07:00,
2013-01-31 07:08:00,5.2,-0.2,30.00,NW,310,18.0,19.0,78,0.00,,,0.00,0,Wunderground v.1.15,2013-01-31 13:08:00,
2013-01-31 07:10:00,5.1,-0.3,30.00,NW,308,15.0,17.0,78,0.00,,,0.00,0,Wunderground v.1.15,2013-01-31 13:10:00,
2013-01-31 07:12:00,5.1,-0.3,30.01,WNW,302,18.0,20.0,78,0.00,,,0.00,0,Wunderground v.1.15,2013-01-31 13:12:00,
2013-01-31 07:13:00,5.1,-0.3,30.01,WNW,301,17.0,20.0,78,0.00,,,0.00,0,Wunderground v.1.15,2013-01-31 13:13:00,
2013-01-31 07:16:00,5.1,-0.3,30.01,WNW,294,19.0,22.0,78,0.00,,,0.00,0,Wunderground v.1.15,2013-01-31 13:16:00,
2013-01-31 07:18:00,5.0,-0.4,30.01,WNW,303,21.0,22.0,78,0.00,,,0.00,0,Wunderground v.1.15,2013-01-31 13:18:00,
2013-01-31 07:19:00,5.0,-0.4,30.01,NW,312,20.0,22.0,78,0.00,,,0.00,0,Wunderground v.1.15,2013-01-31 13:19:00,
2013-01-31 07:22:00,5.0,-0.4,30.01,WNW,301,18.0,19.0,78,0.00,,,0.00,0,Wunderground v.1.15,2013-01-31 13:22:00,
2013-01-31 07:24:00,5.0,-0.4,30.01,NW,311,19.0,19.0,78,0.00,,,0.00,5,Wunderground v.1.15,2013-01-31 13:24:00,
2013-01-31 07:25:00,5.0,-0.4,30.01,NW,313,19.0,19.0,78,0.00,,,0.00,5,Wunderground v.1.15,2013-01-31 13:25:00,
2013-01-31 07:29:00,5.0,-0.4,30.02,WNW,303,14.0,19.0,78,0.00,,,0.00,5,Wunderground v.1.15,2013-01-31 13:29:00,
2013-01-31 07:30:00,5.0,-0.1,30.02,WNW,296,13.0,16.0,79,0.00,,,0.00,5,Wunderground v.1.15,2013-01-31 13:30:00,
2013-01-31 07:31:00,5.0,-0.1,30.02,WNW,297,20.0,20.0,79,0.00,,,0.00,5,Wunderground v.1.15,2013-01-31 13:31:00,
2013-01-31 07:34:00,5.0,-0.4,30.02,NW,306,16.0,20.0,78,0.00,,,0.00,9,Wunderground v.1.15,2013-01-31 13:34:00,
2013-01-31 07:35:00,5.0,-0.4,30.02,WNW,302,19.0,20.0,78,0.00,,,0.00,9,Wunderground v.1.15,2013-01-31 13:35:00,
2013-01-31 07:37:00,5.1,0.0,30.02,WNW,296,19.0,20.0,79,0.00,,,0.00,11,Wunderground v.1.15,2013-01-31 13:37:00,
2013-01-31 07:39:00,5.1,-0.3,30.02,WNW,289,12.0,20.0,78,0.00,,,0.00,12,Wunderground v.1.15,2013-01-31 13:39:00,
2013-01-31 07:41:00,5.1,0.0,30.02,WNW,296,17.0,17.0,79,0.00,,,0.00,12,Wunderground v.1.15,2013-01-31 13:41:00,
2013-01-31 07:42:00,5.1,0.0,30.03,WNW,294,18.0,18.0,79,0.00,,,0.00,16,Wunderground v.1.15,2013-01-31 13:42:00,
2013-01-31 07:44:00,5.2,0.1,30.02,WNW,302,14.0,20.0,79,0.00,,,0.00,16,Wunderground v.1.15,2013-01-31 13:44:00,
2013-01-31 07:46:00,5.2,0.1,30.03,WNW,303,14.0,20.0,79,0.00,,,0.00,19,Wunderground v.1.15,2013-01-31 13:46:00,
2013-01-31 07:47:00,5.3,0.2,30.03,WNW,303,17.0,20.0,79,0.00,,,0.00,19,Wunderground v.1.15,2013-01-31 13:47:00,
2013-01-31 07:48:00,5.3,0.2,30.03,NW,304,16.0,20.0,79,0.00,,,0.00,21,Wunderground v.1.15,2013-01-31 13:48:00,
2013-01-31 07:51:00,5.3,0.2,30.03,NW,317,17.0,17.0,79,0.00,,,0.00,23,Wunderground v.1.15,2013-01-31 13:51:00,
2013-01-31 07:53:00,5.3,0.2,30.03,NW,304,20.0,20.0,79,0.00,,,0.00,23,Wunderground v.1.15,2013-01-31 13:53:00,
2013-01-31 07:55:00,5.3,-0.1,30.03,WNW,296,17.0,21.0,78,0.00,,,0.00,30,Wunderground v.1.15,2013-01-31 13:55:00,
2013-01-31 07:56:00,5.2,-0.2,30.03,WNW,302,18.0,21.0,78,0.00,,,0.00,30,Wunderground v.1.15,2013-01-31 13:56:00,
2013-01-31 07:58:00,5.3,0.2,30.03,WNW,298,22.0,22.0,79,0.00,,,0.00,32,Wunderground v.1.15,2013-01-31 13:58:00,
2013-01-31 08:02:00,5.3,0.2,30.03,WNW,301,19.0,23.0,79,0.00,,,0.00,35,Wunderground v.1.15,2013-01-31 14:02:00,
2013-01-31 08:03:00,5.3,0.2,30.04,NW,307,17.0,23.0,79,0.00,,,0.00,37,Wunderground v.1.15,2013-01-31 14:03:00,
2013-01-31 08:05:00,5.4,0.3,30.04,WNW,298,17.0,23.0,79,0.00,,,0.00,39,Wunderground v.1.15,2013-01-31 14:05:00,
2013-01-31 08:07:00,5.4,0.3,30.04,WNW,301,20.0,23.0,79,0.00,,,0.00,39,Wunderground v.1.15,2013-01-31 14:07:00,
2013-01-31 08:08:00,5.4,0.3,30.04,WNW,298,20.0,23.0,79,0.00,,,0.00,39,Wunderground v.1.15,2013-01-31 14:08:00,
2013-01-31 08:09:00,5.4,0.3,30.04,WNW,302,17.0,23.0,79,0.00,,,0.00,42,Wunderground v.1.15,2013-01-31 14:09:00,
2013-01-31 08:10:00,5.4,0.0,30.04,WNW,294,24.0,24.0,78,0.00,,,0.00,44,Wunderground v.1.15,2013-01-31 14:10:00,
2013-01-31 08:13:00,5.4,0.0,30.05,NW,308,22.0,24.0,78,0.00,,,0.00,47,Wunderground v.1.15,2013-01-31 14:13:00,
2013-01-31 08:14:00,5.4,0.0,30.04,NW,306,21.0,27.0,78,0.00,,,0.00,49,Wunderground v.1.15,2013-01-31 14:14:00,
2013-01-31 08:18:00,5.3,-0.1,30.05,NW,311,23.0,27.0,78,0.00,,,0.00,56,Wunderground v.1.15,2013-01-31 14:18:00,
2013-01-31 08:19:00,5.3,-0.1,30.05,WNW,302,20.0,27.0,78,0.00,,,0.00,58,Wunderground v.1.15,2013-01-31 14:19:00,
2013-01-31 08:21:00,5.3,-0.3,30.05,NW,306,18.0,21.0,77,0.00,,,0.00,60,Wunderground v.1.15,2013-01-31 14:21:00,
2013-01-31 08:23:00,5.2,-0.2,30.05,NW,316,16.0,22.0,78,0.00,,,0.00,67,Wunderground v.1.15,2013-01-31 14:23:00,
2013-01-31 08:24:00,5.2,-0.2,30.05,NW,313,17.0,22.0,78,0.00,,,0.00,67,Wunderground v.1.15,2013-01-31 14:24:00,
2013-01-31 08:26:00,5.3,-0.1,30.05,WNW,303,18.0,22.0,78,0.00,,,0.00,76,Wunderground v.1.15,2013-01-31 14:26:00,
2013-01-31 08:29:00,5.3,-0.1,30.05,NW,320,22.0,22.0,78,0.00,,,0.00,83,Wunderground v.1.15,2013-01-31 14:29:00,
2013-01-31 08:30:00,5.3,-0.1,30.05,WNW,295,16.0,19.0,78,0.00,,,0.00,83,Wunderground v.1.15,2013-01-31 14:30:00,
2013-01-31 08:31:00,5.3,-0.1,30.05,NW,309,17.0,19.0,78,0.00,,,0.00,84,Wunderground v.1.15,2013-01-31 14:31:00,
2013-01-31 08:35:00,5.4,0.3,30.06,WNW,303,14.0,20.0,79,0.00,,,0.00,95,Wunderground v.1.15,2013-01-31 14:35:00,
2013-01-31 08:36:00,5.4,0.3,30.06,NW,320,16.0,20.0,79,0.00,,,0.00,95,Wunderground v.1.15,2013-01-31 14:36:00,
2013-01-31 08:37:00,5.4,0.3,30.06,NW,312,12.0,20.0,79,0.00,,,0.00,97,Wunderground v.1.15,2013-01-31 14:37:00,
2013-01-31 08:41:00,5.5,0.4,30.06,NW,304,16.0,16.0,79,0.00,,,0.00,113,Wunderground v.1.15,2013-01-31 14:41:00,
2013-01-31 08:42:00,5.6,0.5,30.06,WNW,300,19.0,19.0,79,0.00,,,0.00,116,Wunderground v.1.15,2013-01-31 14:42:00,
2013-01-31 08:43:00,5.6,0.8,30.06,NW,306,17.0,21.0,80,0.00,,,0.00,118,Wunderground v.1.15,2013-01-31 14:43:00,
2013-01-31 08:46:00,5.6,0.5,30.06,WNW,303,20.0,22.0,79,0.00,,,0.00,123,Wunderground v.1.15,2013-01-31 14:46:00,
2013-01-31 08:48:00,5.6,0.5,30.06,NW,305,16.0,22.0,79,0.00,,,0.00,118,Wunderground v.1.15,2013-01-31 14:48:00,
2013-01-31 08:51:00,5.6,0.5,30.06,WNW,297,20.0,20.0,79,0.00,,,0.00,139,Wunderground v.1.15,2013-01-31 14:51:00,
2013-01-31 08:53:00,5.6,0.5,30.06,NW,317,18.0,22.0,79,0.00,,,0.00,151,Wunderground v.1.15,2013-01-31 14:53:00,
2013-01-31 08:54:00,5.6,0.2,30.06,NW,308,22.0,22.0,78,0.00,,,0.00,155,Wunderground v.1.15,2013-01-31 14:54:00,
2013-01-31 08:55:00,5.6,0.2,30.06,NW,308,19.0,22.0,78,0.00,,,0.00,160,Wunderground v.1.15,2013-01-31 14:55:00,
2013-01-31 08:57:00,5.6,0.2,30.07,NW,315,21.0,22.0,78,0.00,,,0.00,172,Wunderground v.1.15,2013-01-31 14:57:00,
2013-01-31 09:00:00,5.7,0.3,30.07,NW,312,15.0,19.0,78,0.00,,,0.00,183,Wunderground v.1.15,2013-01-31 15:00:00,
2013-01-31 09:02:00,5.8,0.7,30.07,NW,305,19.0,21.0,79,0.00,,,0.00,200,Wunderground v.1.15,2013-01-31 15:02:00,
2013-01-31 09:05:00,5.8,0.4,30.07,NW,308,21.0,22.0,78,0.00,,,0.00,211,Wunderground v.1.15,2013-01-31 15:05:00,
2013-01-31 09:06:00,5.8,0.1,30.07,NW,310,18.0,22.0,77,0.00,,,0.00,214,Wunderground v.1.15,2013-01-31 15:06:00,
2013-01-31 09:07:00,5.9,0.5,30.07,NW,318,20.0,22.0,78,0.00,,,0.00,214,Wunderground v.1.15,2013-01-31 15:07:00,
2013-01-31 09:08:00,5.9,0.5,30.07,NW,311,19.0,22.0,78,0.00,,,0.00,225,Wunderground v.1.15,2013-01-31 15:08:00,
2013-01-31 09:12:00,6.1,0.7,30.08,WNW,301,20.0,25.0,78,0.00,,,0.00,234,Wunderground v.1.15,2013-01-31 15:12:00,
2013-01-31 09:13:00,6.2,0.5,30.08,NW,305,23.0,25.0,77,0.00,,,0.00,239,Wunderground v.1.15,2013-01-31 15:13:00,
2013-01-31 09:14:00,6.2,0.5,30.08,NW,315,20.0,25.0,77,0.00,,,0.00,241,Wunderground v.1.15,2013-01-31 15:14:00,
2013-01-31 09:19:00,6.2,0.5,30.08,NW,307,15.0,25.0,77,0.00,,,0.00,237,Wunderground v.1.15,2013-01-31 15:19:00,
2013-01-31 09:21:00,6.3,0.9,30.08,NW,326,19.0,20.0,78,0.00,,,0.00,241,Wunderground v.1.15,2013-01-31 15:21:00,
2013-01-31 09:24:00,6.4,1.0,30.08,NW,313,18.0,22.0,78,0.00,,,0.00,243,Wunderground v.1.15,2013-01-31 15:24:00,
2013-01-31 09:26:00,6.5,1.1,30.08,NW,310,18.0,22.0,78,0.00,,,0.00,250,Wunderground v.1.15,2013-01-31 15:26:00,
2013-01-31 09:27:00,6.5,1.1,30.08,NW,309,17.0,22.0,78,0.00,,,0.00,260,Wunderground v.1.15,2013-01-31 15:27:00,
2013-01-31 09:29:00,6.6,1.2,30.08,WNW,292,23.0,23.0,78,0.00,,,0.00,248,Wunderground v.1.15,2013-01-31 15:29:00,
2013-01-31 09:32:00,6.4,1.0,30.09,NW,311,21.0,25.0,78,0.00,,,0.00,237,Wunderground v.1.15,2013-01-31 15:32:00,
2013-01-31 09:33:00,6.4,1.0,30.09,WNW,300,20.0,25.0,78,0.00,,,0.00,195,Wunderground v.1.15,2013-01-31 15:33:00,
2013-01-31 09:34:00,6.4,1.0,30.09,WNW,302,19.0,25.0,78,0.00,,,0.00,165,Wunderground v.1.15,2013-01-31 15:34:00,
2013-01-31 09:38:00,6.4,1.0,30.09,WNW,300,23.0,25.0,78,0.00,,,0.00,167,Wunderground v.1.15,2013-01-31 15:38:00,
2013-01-31 09:39:00,6.2,0.8,30.09,NW,308,20.0,25.0,78,0.00,,,0.00,185,Wunderground v.1.15,2013-01-31 15:39:00,
2013-01-31 09:40:00,6.2,0.8,30.09,NW,304,19.0,25.0,78,0.00,,,0.00,258,Wunderground v.1.15,2013-01-31 15:40:00,
2013-01-31 09:44:00,5.9,0.8,30.09,WNW,297,24.0,25.0,79,0.00,,,0.00,192,Wunderground v.1.15,2013-01-31 15:44:00,
2013-01-31 09:45:00,6.0,0.9,30.09,NW,305,21.0,25.0,79,0.00,,,0.00,181,Wunderground v.1.15,2013-01-31 15:45:00,
2013-01-31 09:46:00,5.9,0.8,30.09,NW,305,21.0,26.0,79,0.00,,,0.00,195,Wunderground v.1.15,2013-01-31 15:46:00,
2013-01-31 09:50:00,5.9,0.8,30.09,NW,318,18.0,23.0,79,0.00,,,0.00,220,Wunderground v.1.15,2013-01-31 15:50:00,
2013-01-31 09:51:00,5.9,0.5,30.10,NW,308,27.0,27.0,78,0.00,,,0.00,220,Wunderground v.1.15,2013-01-31 15:51:00,
2013-01-31 09:52:00,5.8,0.4,30.10,NW,305,23.0,27.0,78,0.00,,,0.00,229,Wunderground v.1.15,2013-01-31 15:52:00,
2013-01-31 09:55:00,5.8,0.4,30.10,NW,313,22.0,27.0,78,0.00,,,0.00,236,Wunderground v.1.15,2013-01-31 15:55:00,
2013-01-31 09:56:00,5.8,0.4,30.11,NW,307,23.0,27.0,78,0.00,,,0.00,250,Wunderground v.1.15,2013-01-31 15:56:00,
2013-01-31 09:57:00,5.8,0.4,30.11,NW,306,24.0,27.0,78,0.00,,,0.00,272,Wunderground v.1.15,2013-01-31 15:57:00,
2013-01-31 09:59:00,5.9,0.5,30.11,NW,310,18.0,27.0,78,0.00,,,0.00,260,Wunderground v.1.15,2013-01-31 15:59:00,
2013-01-31 10:01:00,5.9,0.8,30.11,WNW,298,18.0,22.0,79,0.00,,,0.00,308,Wunderground v.1.15,2013-01-31 16:01:00,
2013-01-31 10:02:00,6.0,0.9,30.11,WNW,298,20.0,22.0,79,0.00,,,0.00,304,Wunderground v.1.15,2013-01-31 16:02:00,
2013-01-31 10:04:00,6.1,1.3,30.11,WNW,302,24.0,24.0,80,0.00,,,0.00,281,Wunderground v.1.15,2013-01-31 16:04:00,
2013-01-31 10:05:00,6.1,1.3,30.11,WNW,303,18.0,24.0,80,0.00,,,0.00,281,Wunderground v.1.15,2013-01-31 16:05:00,
2013-01-31 10:07:00,6.2,1.4,30.11,NW,319,18.0,24.0,80,0.00,,,0.00,283,Wunderground v.1.15,2013-01-31 16:07:00,
2013-01-31 10:08:00,6.3,1.4,30.11,NW,311,16.0,24.0,80,0.00,,,0.00,265,Wunderground v.1.15,2013-01-31 16:08:00,
2013-01-31 10:10:00,6.4,1.8,30.11,NW,311,18.0,21.0,81,0.00,,,0.00,262,Wunderground v.1.15,2013-01-31 16:10:00,
2013-01-31 10:11:00,6.3,1.4,30.11,NW,312,17.0,21.0,80,0.00,,,0.00,267,Wunderground v.1.15,2013-01-31 16:11:00,
2013-01-31 10:12:00,6.3,1.4,30.11,NW,314,22.0,22.0,80,0.00,,,0.00,288,Wunderground v.1.15,2013-01-31 16:12:00,
2013-01-31 10:14:00,6.3,1.2,30.12,NW,314,20.0,22.0,79,0.00,,,0.00,295,Wunderground v.1.15,2013-01-31 16:14:00,
2013-01-31 10:17:00,6.3,1.2,30.12,NW,311,15.0,22.0,79,0.00,,,0.00,346,Wunderground v.1.15,2013-01-31 16:17:00,
2013-01-31 10:18:00,6.3,1.2,30.12,NW,304,19.0,22.0,79,0.00,,,0.00,364,Wunderground v.1.15,2013-01-31 16:18:00,
2013-01-31 10:20:00,6.3,1.2,30.12,NW,314,21.0,22.0,79,0.00,,,0.00,343,Wunderground v.1.15,2013-01-31 16:20:00,
2013-01-31 10:22:00,6.3,0.9,30.12,NW,306,22.0,25.0,78,0.00,,,0.00,334,Wunderground v.1.15,2013-01-31 16:22:00,
2013-01-31 10:24:00,6.2,0.8,30.13,NW,309,21.0,25.0,78,0.00,,,0.00,334,Wunderground v.1.15,2013-01-31 16:24:00,
2013-01-31 10:25:00,6.2,0.8,30.13,NW,311,19.0,25.0,78,0.00,,,0.00,313,Wunderground v.1.15,2013-01-31 16:25:00,
2013-01-31 10:26:00,6.2,0.8,30.13,NW,311,16.0,25.0,78,0.00,,,0.00,308,Wunderground v.1.15,2013-01-31 16:26:00,
2013-01-31 10:29:00,6.2,0.8,30.13,NW,321,15.0,25.0,78,0.00,,,0.00,311,Wunderground v.1.15,2013-01-31 16:29:00,
2013-01-31 10:30:00,6.3,0.9,30.13,NW,322,20.0,20.0,78,0.00,,,0.00,320,Wunderground v.1.15,2013-01-31 16:30:00,
2013-01-31 10:32:00,6.4,1.3,30.13,WNW,294,19.0,21.0,79,0.00,,,0.00,352,Wunderground v.1.15,2013-01-31 16:32:00,
2013-01-31 10:34:00,6.5,1.1,30.14,NW,315,18.0,24.0,78,0.00,,,0.00,336,Wunderground v.1.15,2013-01-31 16:34:00,
2013-01-31 10:35:00,6.5,1.4,30.14,NW,317,19.0,24.0,79,0.00,,,0.00,327,Wunderground v.1.15,2013-01-31 16:35:00,
2013-01-31 10:37:00,6.5,1.1,30.14,NW,313,22.0,24.0,78,0.00,,,0.00,341,Wunderground v.1.15,2013-01-31 16:37:00,
2013-01-31 10:38:00,6.4,1.0,30.14,NW,306,20.0,24.0,78,0.00,,,0.00,355,Wunderground v.1.15,2013-01-31 16:38:00,
2013-01-31 10:40:00,6.5,1.1,30.14,WNW,296,19.0,24.0,78,0.00,,,0.00,350,Wunderground v.1.15,2013-01-31 16:40:00,
2013-01-31 10:42:00,6.6,1.5,30.15,WNW,294,21.0,24.0,79,0.00,,,0.00,357,Wunderground v.1.15,2013-01-31 16:42:00,
2013-01-31 10:44:00,6.6,1.5,30.15,NW,319,18.0,24.0,79,0.00,,,0.00,332,Wunderground v.1.15,2013-01-31 16:44:00,
2013-01-31 10:45:00,6.6,1.5,30.15,WNW,302,19.0,24.0,79,0.00,,,0.00,323,Wunderground v.1.15,2013-01-31 16:45:00,
2013-01-31 10:48:00,6.7,1.6,30.15,NW,304,23.0,25.0,79,0.00,,,0.00,272,Wunderground v.1.15,2013-01-31 16:48:00,
2013-01-31 10:49:00,6.7,1.6,30.15,NW,304,24.0,25.0,79,0.00,,,0.00,269,Wunderground v.1.15,2013-01-31 16:49:00,
2013-01-31 10:51:00,6.6,1.5,30.15,NW,305,23.0,24.0,79,0.00,,,0.00,243,Wunderground v.1.15,2013-01-31 16:51:00,
2013-01-31 10:54:00,6.5,1.1,30.16,WNW,297,19.0,24.0,78,0.00,,,0.00,234,Wunderground v.1.15,2013-01-31 16:54:00,
2013-01-31 10:55:00,6.4,1.3,30.16,WNW,300,23.0,24.0,79,0.00,,,0.00,232,Wunderground v.1.15,2013-01-31 16:55:00,
2013-01-31 10:56:00,6.4,1.3,30.16,WNW,300,22.0,24.0,79,0.00,,,0.00,236,Wunderground v.1.15,2013-01-31 16:56:00,
2013-01-31 10:57:00,6.3,1.2,30.16,WNW,303,23.0,24.0,79,0.00,,,0.00,243,Wunderground v.1.15,2013-01-31 16:57:00,
2013-01-31 11:01:00,6.3,1.4,30.16,WNW,298,19.0,24.0,80,0.00,,,0.00,227,Wunderground v.1.15,2013-01-31 17:01:00,
2013-01-31 11:02:00,6.3,1.2,30.16,WNW,298,18.0,24.0,79,0.00,,,0.00,229,Wunderground v.1.15,2013-01-31 17:02:00,
2013-01-31 11:03:00,6.3,1.2,30.16,WNW,302,23.0,24.0,79,0.00,,,0.00,225,Wunderground v.1.15,2013-01-31 17:03:00,
2013-01-31 11:07:00,6.1,0.4,30.17,WNW,303,19.0,26.0,77,0.00,,,0.00,234,Wunderground v.1.15,2013-01-31 17:07:00,
2013-01-31 11:08:00,6.1,0.4,30.17,NW,309,16.0,26.0,77,0.00,,,0.00,236,Wunderground v.1.15,2013-01-31 17:08:00,
2013-01-31 11:10:00,6.1,0.7,30.17,WNW,296,18.0,21.0,78,0.00,,,0.00,239,Wunderground v.1.15,2013-01-31 17:10:00,
2013-01-31 11:13:00,6.3,1.4,30.17,WNW,296,21.0,23.0,80,0.00,,,0.00,283,Wunderground v.1.15,2013-01-31 17:13:00,
2013-01-31 11:14:00,6.3,1.4,30.17,WNW,296,23.0,24.0,80,0.00,,,0.00,253,Wunderground v.1.15,2013-01-31 17:14:00,
2013-01-31 11:15:00,6.3,1.4,30.17,WNW,289,17.0,24.0,80,0.00,,,0.00,253,Wunderground v.1.15,2013-01-31 17:15:00,
2013-01-31 11:19:00,6.4,1.8,30.17,WNW,297,19.0,25.0,81,0.00,,,0.00,352,Wunderground v.1.15,2013-01-31 17:19:00,
2013-01-31 11:20:00,6.5,1.9,30.17,WNW,302,17.0,20.0,81,0.00,,,0.00,352,Wunderground v.1.15,2013-01-31 17:20:00,
2013-01-31 11:25:00,6.9,2.6,30.17,NW,305,18.0,24.0,82,0.00,,,0.00,357,Wunderground v.1.15,2013-01-31 17:25:00,
2013-01-31 11:26:00,7.0,2.7,30.17,NW,309,20.0,24.0,82,0.00,,,0.00,364,Wunderground v.1.15,2013-01-31 17:26:00,
2013-01-31 11:30:00,6.9,2.0,30.17,NW,318,23.0,23.0,80,0.00,,,0.00,432,Wunderground v.1.15,2013-01-31 17:30:00,
2013-01-31 11:32:00,6.9,2.0,30.18,NW,306,19.0,23.0,80,0.00,,,0.00,369,Wunderground v.1.15,2013-01-31 17:32:00,
2013-01-31 11:37:00,7.0,2.1,30.18,NW,309,22.0,27.0,80,0.00,,,0.00,443,Wunderground v.1.15,2013-01-31 17:37:00,
2013-01-31 11:38:00,7.0,1.9,30.17,NW,306,21.0,27.0,79,0.00,,,0.00,338,Wunderground v.1.15,2013-01-31 17:38:00,
2013-01-31 11:41:00,6.9,2.0,30.17,NW,305,23.0,23.0,80,0.00,,,0.00,439,Wunderground v.1.15,2013-01-31 17:41:00,
2013-01-31 11:42:00,6.9,2.0,30.17,NW,304,17.0,23.0,80,0.00,,,0.00,439,Wunderground v.1.15,2013-01-31 17:42:00,
2013-01-31 11:43:00,6.9,2.0,30.17,NW,313,18.0,23.0,80,0.00,,,0.00,446,Wunderground v.1.15,2013-01-31 17:43:00,
2013-01-31 11:47:00,6.8,1.9,30.18,NW,306,20.0,25.0,80,0.00,,,0.00,306,Wunderground v.1.15,2013-01-31 17:47:00,
2013-01-31 11:48:00,6.8,2.2,30.18,WNW,303,25.0,25.0,81,0.00,,,0.00,534,Wunderground v.1.15,2013-01-31 17:48:00,
2013-01-31 11:49:00,6.8,2.2,30.18,WNW,294,18.0,25.0,81,0.00,,,0.00,454,Wunderground v.1.15,2013-01-31 17:49:00,
2013-01-31 11:54:00,6.8,2.5,30.18,WNW,301,18.0,25.0,82,0.00,,,0.00,352,Wunderground v.1.15,2013-01-31 17:54:00,
2013-01-31 11:56:00,6.9,2.8,30.18,WNW,289,23.0,26.0,83,0.00,,,0.00,290,Wunderground v.1.15,2013-01-31 17:56:00,
2013-01-31 11:59:00,6.9,2.8,30.18,WNW,291,21.0,26.0,83,0.00,,,0.00,329,Wunderground v.1.15,2013-01-31 17:59:00,
2013-01-31 12:00:00,6.9,2.8,30.18,WNW,291,19.0,21.0,83,0.00,,,0.00,360,Wunderground v.1.15,2013-01-31 18:00:00,
2013-01-31 12:01:00,6.9,2.8,30.18,WNW,296,21.0,25.0,83,0.00,,,0.00,448,Wunderground v.1.15,2013-01-31 18:01:00,
2013-01-31 12:04:00,6.8,3.0,30.18,WNW,302,23.0,25.0,84,0.00,,,0.00,371,Wunderground v.1.15,2013-01-31 18:04:00,
2013-01-31 12:05:00,6.8,3.0,30.18,WNW,298,23.0,25.0,84,0.00,,,0.00,367,Wunderground v.1.15,2013-01-31 18:05:00,
2013-01-31 12:07:00,6.9,2.8,30.18,WNW,288,20.0,25.0,83,0.00,,,0.00,385,Wunderground v.1.15,2013-01-31 18:07:00,
2013-01-31 12:10:00,7.0,3.2,30.18,WNW,291,22.0,23.0,84,0.00,,,0.00,323,Wunderground v.1.15,2013-01-31 18:10:00,
2013-01-31 12:11:00,7.0,3.2,30.18,WNW,296,21.0,23.0,84,0.00,,,0.00,323,Wunderground v.1.15,2013-01-31 18:11:00,
2013-01-31 12:14:00,7.1,3.3,30.18,WNW,288,20.0,24.0,84,0.00,,,0.00,392,Wunderground v.1.15,2013-01-31 18:14:00,
2013-01-31 12:15:00,7.0,3.4,30.18,WNW,290,19.0,24.0,85,0.00,,,0.00,432,Wunderground v.1.15,2013-01-31 18:15:00,
2013-01-31 12:16:00,7.0,3.4,30.18,WNW,298,21.0,24.0,85,0.00,,,0.00,373,Wunderground v.1.15,2013-01-31 18:16:00,
2013-01-31 12:17:00,7.0,3.4,30.18,WNW,294,20.0,24.0,85,0.00,,,0.00,373,Wunderground v.1.15,2013-01-31 18:17:00,
2013-01-31 12:19:00,6.9,2.8,30.18,WNW,288,23.0,25.0,83,0.00,,,0.00,367,Wunderground v.1.15,2013-01-31 18:19:00,
2013-01-31 12:21:00,7.1,3.0,30.18,WNW,290,20.0,22.0,83,0.00,,,0.00,550,Wunderground v.1.15,2013-01-31 18:21:00,
2013-01-31 12:24:00,7.3,3.0,30.18,WNW,302,23.0,25.0,82,0.00,,,0.00,554,Wunderground v.1.15,2013-01-31 18:24:00,
2013-01-31 12:25:00,7.4,2.8,30.18,WNW,292,19.0,25.0,81,0.00,,,0.00,550,Wunderground v.1.15,2013-01-31 18:25:00,
2013-01-31 12:27:00,7.4,2.8,30.18,WNW,301,28.0,28.0,81,0.00,,,0.00,550,Wunderground v.1.15,2013-01-31 18:27:00,
2013-01-31 12:30:00,7.3,2.2,30.18,NW,305,20.0,28.0,79,0.00,,,0.00,292,Wunderground v.1.15,2013-01-31 18:30:00,
2013-01-31 12:32:00,7.4,2.5,30.18,WNW,298,22.0,23.0,80,0.00,,,0.00,299,Wunderground v.1.15,2013-01-31 18:32:00,
2013-01-31 12:33:00,7.4,2.5,30.18,WNW,298,20.0,23.0,80,0.00,,,0.00,299,Wunderground v.1.15,2013-01-31 18:33:00,
2013-01-31 12:35:00,7.3,2.7,30.18,WNW,296,20.0,23.0,81,0.00,,,0.00,367,Wunderground v.1.15,2013-01-31 18:35:00,
2013-01-31 12:38:00,7.3,3.2,30.18,WNW,299,17.0,24.0,83,0.00,,,0.00,376,Wunderground v.1.15,2013-01-31 18:38:00,
2013-01-31 12:42:00,7.2,3.4,30.18,WNW,292,26.0,28.0,84,0.00,,,0.00,571,Wunderground v.1.15,2013-01-31 18:42:00,
2013-01-31 12:43:00,7.2,3.6,30.18,NW,305,23.0,28.0,85,0.00,,,0.00,642,Wunderground v.1.15,2013-01-31 18:43:00,
2013-01-31 12:45:00,7.2,3.6,30.18,WNW,297,16.0,28.0,85,0.00,,,0.00,635,Wunderground v.1.15,2013-01-31 18:45:00,
2013-01-31 12:48:00,7.3,3.7,30.18,WNW,294,27.0,28.0,85,0.00,,,0.00,413,Wunderground v.1.15,2013-01-31 18:48:00,
2013-01-31 12:49:00,7.4,3.8,30.18,WNW,291,21.0,28.0,85,0.00,,,0.00,413,Wunderground v.1.15,2013-01-31 18:49:00,
2013-01-31 12:50:00,7.3,3.7,30.18,WNW,295,21.0,23.0,85,0.00,,,0.00,411,Wunderground v.1.15,2013-01-31 18:50:00,
2013-01-31 12:54:00,7.3,4.0,30.18,WNW,300,22.0,29.0,86,0.00,,,0.00,424,Wunderground v.1.15,2013-01-31 18:54:00,
2013-01-31 12:55:00,7.4,4.1,30.18,WNW,288,25.0,29.0,86,0.00,,,0.00,424,Wunderground v.1.15,2013-01-31 18:55:00,
2013-01-31 12:57:00,7.3,4.0,30.18,WNW,295,22.0,29.0,86,0.00,,,0.00,531,Wunderground v.1.15,2013-01-31 18:57:00,
2013-01-31 13:00:00,7.5,4.2,30.18,WNW,299,22.0,24.0,86,0.00,,,0.00,408,Wunderground v.1.15,2013-01-31 19:00:00,
2013-01-31 13:02:00,7.5,4.2,30.18,WNW,293,30.0,30.0,86,0.00,,,0.00,408,Wunderground v.1.15,2013-01-31 19:02:00,
2013-01-31 13:03:00,7.6,4.3,30.19,WNW,301,25.0,30.0,86,0.00,,,0.00,647,Wunderground v.1.15,2013-01-31 19:03:00,
2013-01-31 13:05:00,7.6,4.0,30.19,WNW,292,22.0,30.0,85,0.00,,,0.00,325,Wunderground v.1.15,2013-01-31 19:05:00,
2013-01-31 13:07:00,7.6,4.0,30.19,WNW,294,25.0,30.0,85,0.00,,,0.00,352,Wunderground v.1.15,2013-01-31 19:07:00,
2013-01-31 13:10:00,7.2,3.4,30.19,WNW,300,27.0,27.0,84,0.00,,,0.00,265,Wunderground v.1.15,2013-01-31 19:10:00,
2013-01-31 13:11:00,7.3,3.5,30.19,WNW,301,21.0,27.0,84,0.00,,,0.00,601,Wunderground v.1.15,2013-01-31 19:11:00,
2013-01-31 13:12:00,7.3,3.5,30.19,WNW,297,21.0,27.0,84,0.00,,,0.00,601,Wunderground v.1.15,2013-01-31 19:12:00,
2013-01-31 13:13:00,7.3,3.5,30.19,WNW,302,22.0,27.0,84,0.00,,,0.00,322,Wunderground v.1.15,2013-01-31 19:13:00,
2013-01-31 13:16:00,7.5,3.7,30.19,WNW,298,26.0,27.0,84,0.00,,,0.00,359,Wunderground v.1.15,2013-01-31 19:16:00,
2013-01-31 13:17:00,7.5,3.7,30.19,WNW,296,22.0,27.0,84,0.00,,,0.00,584,Wunderground v.1.15,2013-01-31 19:17:00,
2013-01-31 13:19:00,7.7,3.9,30.19,WNW,300,22.0,27.0,84,0.00,,,0.00,281,Wunderground v.1.15,2013-01-31 19:19:00,
2013-01-31 13:20:00,7.7,3.9,30.20,WNW,301,26.0,26.0,84,0.00,,,0.00,281,Wunderground v.1.15,2013-01-31 19:20:00,
2013-01-31 13:22:00,7.6,3.5,30.20,NW,317,26.0,27.0,83,0.00,,,0.00,316,Wunderground v.1.15,2013-01-31 19:22:00,
2013-01-31 13:24:00,7.5,3.4,30.20,WNW,297,27.0,27.0,83,0.00,,,0.00,348,Wunderground v.1.15,2013-01-31 19:24:00,
2013-01-31 13:26:00,7.5,3.4,30.20,WNW,302,25.0,27.0,83,0.00,,,0.00,348,Wunderground v.1.15,2013-01-31 19:26:00,
2013-01-31 13:28:00,7.6,3.3,30.20,NW,305,20.0,27.0,82,0.00,,,0.00,387,Wunderground v.1.15,2013-01-31 19:28:00,
2013-01-31 13:30:00,7.7,3.4,30.20,WNW,299,25.0,28.0,82,0.00,,,0.00,313,Wunderground v.1.15,2013-01-31 19:30:00,
2013-01-31 13:32:00,7.6,3.3,30.20,NW,306,23.0,28.0,82,0.00,,,0.00,355,Wunderground v.1.15,2013-01-31 19:32:00,
2013-01-31 13:33:00,7.6,3.5,30.20,WNW,286,25.0,28.0,83,0.00,,,0.00,355,Wunderground v.1.15,2013-01-31 19:33:00,
2013-01-31 13:34:00,7.6,3.5,30.20,NW,312,26.0,28.0,83,0.00,,,0.00,355,Wunderground v.1.15,2013-01-31 19:34:00,
2013-01-31 13:37:00,7.4,3.1,30.20,NW,304,23.0,29.0,82,0.00,,,0.00,369,Wunderground v.1.15,2013-01-31 19:37:00,
2013-01-31 13:38:00,7.3,3.2,30.20,WNW,299,19.0,29.0,83,0.00,,,0.00,308,Wunderground v.1.15,2013-01-31 19:38:00,
2013-01-31 13:39:00,7.3,3.2,30.20,WNW,302,23.0,29.0,83,0.00,,,0.00,390,Wunderground v.1.15,2013-01-31 19:39:00,
2013-01-31 13:43:00,7.7,3.6,30.20,WNW,300,27.0,27.0,83,0.00,,,0.00,550,Wunderground v.1.15,2013-01-31 19:43:00,
2013-01-31 13:44:00,7.7,3.6,30.20,WNW,295,24.0,27.0,83,0.00,,,0.00,454,Wunderground v.1.15,2013-01-31 19:44:00,
2013-01-31 13:46:00,7.7,3.6,30.20,NW,306,21.0,27.0,83,0.00,,,0.00,244,Wunderground v.1.15,2013-01-31 19:46:00,
2013-01-31 13:49:00,7.6,3.5,30.20,WNW,293,23.0,29.0,83,0.00,,,0.00,394,Wunderground v.1.15,2013-01-31 19:49:00,
2013-01-31 13:50:00,7.6,3.5,30.21,WNW,293,25.0,25.0,83,0.00,,,0.00,244,Wunderground v.1.15,2013-01-31 19:50:00,
2013-01-31 13:54:00,7.5,3.4,30.21,WNW,294,21.0,26.0,83,0.00,,,0.00,322,Wunderground v.1.15,2013-01-31 19:54:00,
2013-01-31 13:55:00,7.5,3.4,30.20,NW,307,22.0,26.0,83,0.00,,,0.00,257,Wunderground v.1.15,2013-01-31 19:55:00,
2013-01-31 13:56:00,7.5,3.2,30.21,WNW,294,26.0,26.0,82,0.00,,,0.00,257,Wunderground v.1.15,2013-01-31 19:56:00,
2013-01-31 13:57:00,7.6,3.3,30.21,WNW,300,23.0,26.0,82,0.00,,,0.00,269,Wunderground v.1.15,2013-01-31 19:57:00,
2013-01-31 13:59:00,7.6,3.5,30.21,WNW,303,15.0,26.0,83,0.00,,,0.00,350,Wunderground v.1.15,2013-01-31 19:59:00,
2013-01-31 14:01:00,7.7,3.6,30.21,WNW,294,18.0,26.0,83,0.00,,,0.00,503,Wunderground v.1.15,2013-01-31 20:01:00,
2013-01-31 14:03:00,7.8,3.4,30.21,WNW,301,25.0,28.0,82,0.00,,,0.00,621,Wunderground v.1.15,2013-01-31 20:03:00,
2013-01-31 14:06:00,7.6,3.3,30.21,WNW,296,25.0,28.0,82,0.00,,,0.00,301,Wunderground v.1.15,2013-01-31 20:06:00,
2013-01-31 14:07:00,7.5,3.4,30.21,WNW,296,24.0,28.0,83,0.00,,,0.00,234,Wunderground v.1.15,2013-01-31 20:07:00,
2013-01-31 14:08:00,7.4,3.3,30.21,WNW,293,23.0,28.0,83,0.00,,,0.00,274,Wunderground v.1.15,2013-01-31 20:08:00,
2013-01-31 14:11:00,7.2,3.4,30.21,NW,305,24.0,29.0,84,0.00,,,0.00,251,Wunderground v.1.15,2013-01-31 20:11:00,
2013-01-31 14:13:00,7.3,3.5,30.21,WNW,302,20.0,29.0,84,0.00,,,0.00,251,Wunderground v.1.15,2013-01-31 20:13:00,
2013-01-31 14:14:00,7.3,3.5,30.21,WNW,296,22.0,29.0,84,0.00,,,0.00,364,Wunderground v.1.15,2013-01-31 20:14:00,
2013-01-31 14:17:00,7.3,3.5,30.21,WNW,284,26.0,29.0,84,0.00,,,0.00,234,Wunderground v.1.15,2013-01-31 20:17:00,
2013-01-31 14:18:00,7.2,3.1,30.22,WNW,298,22.0,29.0,83,0.00,,,0.00,330,Wunderground v.1.15,2013-01-31 20:18:00,
2013-01-31 14:19:00,7.2,3.1,30.22,WNW,298,24.0,29.0,83,0.00,,,0.00,330,Wunderground v.1.15,2013-01-31 20:19:00,
2013-01-31 14:23:00,7.3,3.2,30.21,WNW,300,19.0,30.0,83,0.00,,,0.00,578,Wunderground v.1.15,2013-01-31 20:23:00,
2013-01-31 14:24:00,7.4,3.3,30.21,WNW,292,26.0,30.0,83,0.00,,,0.00,471,Wunderground v.1.15,2013-01-31 20:24:00,
2013-01-31 14:28:00,7.1,3.0,30.22,WNW,294,22.0,31.0,83,0.00,,,0.00,334,Wunderground v.1.15,2013-01-31 20:28:00,
2013-01-31 14:29:00,7.1,3.3,30.22,NW,307,21.0,31.0,84,0.00,,,0.00,334,Wunderground v.1.15,2013-01-31 20:29:00,
2013-01-31 14:30:00,7.1,3.3,30.22,WNW,299,26.0,26.0,84,0.00,,,0.00,408,Wunderground v.1.15,2013-01-31 20:30:00,
2013-01-31 14:31:00,7.1,3.5,30.22,WNW,300,26.0,30.0,85,0.00,,,0.00,408,Wunderground v.1.15,2013-01-31 20:31:00,
2013-01-31 14:34:00,7.0,3.2,30.22,NW,305,23.0,30.0,84,0.00,,,0.00,506,Wunderground v.1.15,2013-01-31 20:34:00,
2013-01-31 14:35:00,7.0,3.2,30.22,WNW,298,25.0,30.0,84,0.00,,,0.00,506,Wunderground v.1.15,2013-01-31 20:35:00,
2013-01-31 14:36:00,7.1,3.3,30.22,WNW,299,23.0,30.0,84,0.00,,,0.00,506,Wunderground v.1.15,2013-01-31 20:36:00,
2013-01-31 14:39:00,7.3,3.5,30.22,WNW,299,27.0,30.0,84,0.00,,,0.00,204,Wunderground v.1.15,2013-01-31 20:39:00,
2013-01-31 14:41:00,7.1,3.0,30.22,WNW,298,28.0,28.0,83,0.00,,,0.00,186,Wunderground v.1.15,2013-01-31 20:41:00,
2013-01-31 14:43:00,6.7,2.6,30.23,WNW,299,28.0,28.0,83,0.00,,,0.00,163,Wunderground v.1.15,2013-01-31 20:43:00,
2013-01-31 14:44:00,6.6,2.5,30.23,WNW,298,25.0,28.0,83,0.00,,,0.00,229,Wunderground v.1.15,2013-01-31 20:44:00,
2013-01-31 14:46:00,6.7,2.6,30.23,WNW,303,23.0,29.0,83,0.00,,,0.00,369,Wunderground v.1.15,2013-01-31 20:46:00,
2013-01-31 14:48:00,6.8,3.0,30.23,WNW,292,25.0,29.0,84,0.00,,,0.00,369,Wunderground v.1.15,2013-01-31 20:48:00,
2013-01-31 14:49:00,6.9,2.8,30.23,WNW,292,27.0,29.0,83,0.00,,,0.00,369,Wunderground v.1.15,2013-01-31 20:49:00,
2013-01-31 14:53:00,6.8,3.0,30.23,WNW,301,24.0,28.0,84,0.00,,,0.00,209,Wunderground v.1.15,2013-01-31 20:53:00,
2013-01-31 14:54:00,6.8,3.0,30.23,WNW,300,23.0,28.0,84,0.00,,,0.00,209,Wunderground v.1.15,2013-01-31 20:54:00,
2013-01-31 14:55:00,6.7,2.6,30.23,WNW,292,21.0,28.0,83,0.00,,,0.00,121,Wunderground v.1.15,2013-01-31 20:55:00,
2013-01-31 14:58:00,6.5,2.7,30.23,WNW,288,25.0,28.0,84,0.00,,,0.00,253,Wunderground v.1.15,2013-01-31 20:58:00,
2013-01-31 14:59:00,6.5,2.7,30.23,WNW,288,23.0,28.0,84,0.00,,,0.00,253,Wunderground v.1.15,2013-01-31 20:59:00,
2013-01-31 15:00:00,6.5,2.7,30.24,WNW,297,28.0,28.0,84,0.00,,,0.00,202,Wunderground v.1.15,2013-01-31 21:00:00,
2013-01-31 15:03:00,6.5,2.4,30.24,WNW,285,22.0,28.0,83,0.00,,,0.00,267,Wunderground v.1.15,2013-01-31 21:03:00,
2013-01-31 15:04:00,6.6,2.5,30.24,WNW,296,27.0,28.0,83,0.00,,,0.00,267,Wunderground v.1.15,2013-01-31 21:04:00,
2013-01-31 15:05:00,6.7,2.6,30.24,WNW,302,24.0,29.0,83,0.00,,,0.00,369,Wunderground v.1.15,2013-01-31 21:05:00,
2013-01-31 15:06:00,6.8,2.7,30.24,WNW,299,28.0,29.0,83,0.00,,,0.00,315,Wunderground v.1.15,2013-01-31 21:06:00,
2013-01-31 15:10:00,7.0,3.2,30.24,WNW,302,23.0,29.0,84,0.00,,,0.00,151,Wunderground v.1.15,2013-01-31 21:10:00,
2013-01-31 15:13:00,6.6,2.3,30.24,WNW,296,26.0,26.0,82,0.00,,,0.00,225,Wunderground v.1.15,2013-01-31 21:13:00,
2013-01-31 15:16:00,6.5,2.2,30.24,NW,308,24.0,26.0,82,0.00,,,0.00,162,Wunderground v.1.15,2013-01-31 21:16:00,
2013-01-31 15:17:00,6.5,2.2,30.25,WNW,295,26.0,28.0,82,0.00,,,0.00,162,Wunderground v.1.15,2013-01-31 21:17:00,
2013-01-31 15:19:00,6.4,1.8,30.25,NW,306,23.0,30.0,81,0.00,,,0.00,190,Wunderground v.1.15,2013-01-31 21:19:00,
2013-01-31 15:21:00,6.3,1.7,30.25,WNW,296,23.0,25.0,81,0.00,,,0.00,192,Wunderground v.1.15,2013-01-31 21:21:00,
2013-01-31 15:22:00,6.3,1.7,30.25,WNW,293,23.0,25.0,81,0.00,,,0.00,151,Wunderground v.1.15,2013-01-31 21:22:00,
2013-01-31 15:25:00,6.3,1.7,30.25,WNW,300,27.0,28.0,81,0.00,,,0.00,211,Wunderground v.1.15,2013-01-31 21:25:00,
2013-01-31 15:27:00,6.3,2.0,30.25,WNW,302,18.0,28.0,82,0.00,,,0.00,234,Wunderground v.1.15,2013-01-31 21:27:00,
2013-01-31 15:28:00,6.3,2.0,30.25,WNW,302,17.0,28.0,82,0.00,,,0.00,246,Wunderground v.1.15,2013-01-31 21:28:00,
2013-01-31 15:30:00,6.5,2.2,30.25,WNW,302,25.0,25.0,82,0.00,,,0.00,141,Wunderground v.1.15,2013-01-31 21:30:00,
2013-01-31 15:32:00,6.5,2.2,30.25,WNW,302,18.0,25.0,82,0.00,,,0.00,237,Wunderground v.1.15,2013-01-31 21:32:00,
2013-01-31 15:33:00,6.6,2.3,30.25,NW,313,16.0,25.0,82,0.00,,,0.00,171,Wunderground v.1.15,2013-01-31 21:33:00,
2013-01-31 15:34:00,6.7,2.4,30.25,WNW,299,23.0,25.0,82,0.00,,,0.00,171,Wunderground v.1.15,2013-01-31 21:34:00,
2013-01-31 15:37:00,6.7,2.4,30.25,NW,313,22.0,25.0,82,0.00,,,0.00,134,Wunderground v.1.15,2013-01-31 21:37:00,
2013-01-31 15:38:00,6.8,2.5,30.25,NW,320,19.0,25.0,82,0.00,,,0.00,134,Wunderground v.1.15,2013-01-31 21:38:00,
2013-01-31 15:39:00,6.5,1.9,30.25,NW,316,18.0,25.0,81,0.00,,,0.00,132,Wunderground v.1.15,2013-01-31 21:39:00,
2013-01-31 15:40:00,6.5,1.9,30.25,NW,314,20.0,25.0,81,0.00,,,0.00,132,Wunderground v.1.15,2013-01-31 21:40:00,
2013-01-31 15:43:00,6.5,1.6,30.26,WNW,298,19.0,25.0,80,0.00,,,0.00,130,Wunderground v.1.15,2013-01-31 21:43:00,
2013-01-31 15:45:00,6.4,1.5,30.26,NW,309,21.0,28.0,80,0.00,,,0.00,204,Wunderground v.1.15,2013-01-31 21:45:00,
2013-01-31 15:48:00,6.4,1.5,30.26,WNW,299,19.0,28.0,80,0.00,,,0.00,125,Wunderground v.1.15,2013-01-31 21:48:00,
2013-01-31 15:50:00,6.3,1.4,30.26,WNW,303,28.0,28.0,80,0.00,,,0.00,169,Wunderground v.1.15,2013-01-31 21:50:00,
2013-01-31 15:53:00,6.3,1.2,30.26,NW,308,17.0,30.0,79,0.00,,,0.00,174,Wunderground v.1.15,2013-01-31 21:53:00,
2013-01-31 15:54:00,6.3,1.2,30.26,NW,306,21.0,30.0,79,0.00,,,0.00,239,Wunderground v.1.15,2013-01-31 21:54:00,
2013-01-31 15:56:00,6.4,1.5,30.26,WNW,298,24.0,31.0,80,0.00,,,0.00,241,Wunderground v.1.15,2013-01-31 21:56:00,
2013-01-31 15:58:00,6.4,1.5,30.27,NW,304,23.0,31.0,80,0.00,,,0.00,202,Wunderground v.1.15,2013-01-31 21:58:00,
2013-01-31 15:59:00,6.4,1.5,30.26,WNW,297,25.0,31.0,80,0.00,,,0.00,229,Wunderground v.1.15,2013-01-31 21:59:00,
2013-01-31 16:03:00,6.5,1.6,30.27,WNW,294,18.0,26.0,80,0.00,,,0.00,114,Wunderground v.1.15,2013-01-31 22:03:00,
2013-01-31 16:04:00,6.5,1.6,30.27,NW,304,21.0,26.0,80,0.00,,,0.00,114,Wunderground v.1.15,2013-01-31 22:04:00,
2013-01-31 16:05:00,6.5,1.6,30.27,NW,305,16.0,26.0,80,0.00,,,0.00,114,Wunderground v.1.15,2013-01-31 22:05:00,
2013-01-31 16:09:00,6.6,1.7,30.27,WNW,298,17.0,26.0,80,0.00,,,0.00,127,Wunderground v.1.15,2013-01-31 22:09:00,
2013-01-31 16:11:00,6.5,1.6,30.27,WNW,298,18.0,25.0,80,0.00,,,0.00,144,Wunderground v.1.15,2013-01-31 22:11:00,
2013-01-31 16:12:00,6.5,1.4,30.27,NW,305,17.0,25.0,79,0.00,,,0.00,144,Wunderground v.1.15,2013-01-31 22:12:00,
2013-01-31 16:14:00,6.5,1.6,30.27,WNW,297,19.0,25.0,80,0.00,,,0.00,128,Wunderground v.1.15,2013-01-31 22:14:00,
2013-01-31 16:16:00,6.5,1.6,30.27,WNW,292,19.0,25.0,80,0.00,,,0.00,109,Wunderground v.1.15,2013-01-31 22:16:00,
2013-01-31 16:18:00,6.5,1.4,30.27,WNW,302,20.0,25.0,79,0.00,,,0.00,93,Wunderground v.1.15,2013-01-31 22:18:00,
2013-01-31 16:20:00,6.5,1.4,30.27,WNW,297,18.0,22.0,79,0.00,,,0.00,100,Wunderground v.1.15,2013-01-31 22:20:00,
2013-01-31 16:22:00,6.4,1.0,30.27,WNW,302,23.0,23.0,78,0.00,,,0.00,127,Wunderground v.1.15,2013-01-31 22:22:00,
2013-01-31 16:23:00,6.4,1.3,30.27,NW,304,26.0,26.0,79,0.00,,,0.00,132,Wunderground v.1.15,2013-01-31 22:23:00,
2013-01-31 16:25:00,6.4,1.0,30.27,WNW,288,23.0,26.0,78,0.00,,,0.00,120,Wunderground v.1.15,2013-01-31 22:25:00,
2013-01-31 16:28:00,6.4,1.0,30.27,WNW,301,25.0,26.0,78,0.00,,,0.00,127,Wunderground v.1.15,2013-01-31 22:28:00,
2013-01-31 16:29:00,6.4,1.3,30.27,WNW,302,17.0,26.0,79,0.00,,,0.00,102,Wunderground v.1.15,2013-01-31 22:29:00,
2013-01-31 16:31:00,6.5,1.4,30.27,WNW,302,19.0,22.0,79,0.00,,,0.00,98,Wunderground v.1.15,2013-01-31 22:31:00,
2013-01-31 16:33:00,6.5,1.4,30.27,WNW,299,24.0,24.0,79,0.00,,,0.00,93,Wunderground v.1.15,2013-01-31 22:33:00,
2013-01-31 16:34:00,6.5,1.4,30.27,WNW,294,23.0,24.0,79,0.00,,,0.00,93,Wunderground v.1.15,2013-01-31 22:34:00,
2013-01-31 16:36:00,6.5,1.6,30.27,NW,311,20.0,24.0,80,0.00,,,0.00,100,Wunderground v.1.15,2013-01-31 22:36:00,
2013-01-31 16:38:00,6.5,1.4,30.27,NW,305,19.0,25.0,79,0.00,,,0.00,100,Wunderground v.1.15,2013-01-31 22:38:00,
2013-01-31 16:39:00,6.5,1.4,30.27,WNW,297,19.0,25.0,79,0.00,,,0.00,90,Wunderground v.1.15,2013-01-31 22:39:00,
2013-01-31 16:41:00,6.5,1.4,30.28,WNW,300,17.0,22.0,79,0.00,,,0.00,79,Wunderground v.1.15,2013-01-31 22:41:00,
2013-01-31 16:44:00,6.4,1.3,30.28,NW,304,26.0,26.0,79,0.00,,,0.00,54,Wunderground v.1.15,2013-01-31 22:44:00,
2013-01-31 16:45:00,6.4,1.0,30.28,WNW,295,22.0,26.0,78,0.00,,,0.00,54,Wunderground v.1.15,2013-01-31 22:45:00,
2013-01-31 16:47:00,6.3,0.9,30.28,WNW,301,20.0,26.0,78,0.00,,,0.00,42,Wunderground v.1.15,2013-01-31 22:47:00,
2013-01-31 16:50:00,6.1,0.7,30.28,WNW,300,19.0,24.0,78,0.00,,,0.00,47,Wunderground v.1.15,2013-01-31 22:50:00,
2013-01-31 16:51:00,6.0,0.3,30.28,WNW,296,23.0,24.0,77,0.00,,,0.00,54,Wunderground v.1.15,2013-01-31 22:51:00,
2013-01-31 16:53:00,6.0,0.3,30.28,WNW,296,21.0,24.0,77,0.00,,,0.00,51,Wunderground v.1.15,2013-01-31 22:53:00,
2013-01-31 16:56:00,6.1,0.7,30.28,WNW,302,22.0,24.0,78,0.00,,,0.00,40,Wunderground v.1.15,2013-01-31 22:56:00,
2013-01-31 16:57:00,6.1,0.7,30.28,NW,309,19.0,24.0,78,0.00,,,0.00,42,Wunderground v.1.15,2013-01-31 22:57:00,
2013-01-31 16:58:00,6.1,0.4,30.28,WNW,303,22.0,24.0,77,0.00,,,0.00,39,Wunderground v.1.15,2013-01-31 22:58:00,
2013-01-31 16:59:00,6.1,0.4,30.28,NW,311,18.0,24.0,77,0.00,,,0.00,35,Wunderground v.1.15,2013-01-31 22:59:00,
2013-01-31 17:01:00,6.0,0.3,30.28,NW,305,20.0,21.0,77,0.00,,,0.00,35,Wunderground v.1.15,2013-01-31 23:01:00,
2013-01-31 17:03:00,6.0,0.3,30.28,WNW,296,17.0,24.0,77,0.00,,,0.00,30,Wunderground v.1.15,2013-01-31 23:03:00,
2013-01-31 17:04:00,6.0,0.3,30.28,WNW,300,18.0,24.0,77,0.00,,,0.00,28,Wunderground v.1.15,2013-01-31 23:04:00,
2013-01-31 17:05:00,6.0,0.3,30.29,WNW,295,20.0,24.0,77,0.00,,,0.00,26,Wunderground v.1.15,2013-01-31 23:05:00,
2013-01-31 17:07:00,6.0,0.3,30.29,NW,310,16.0,24.0,77,0.00,,,0.00,21,Wunderground v.1.15,2013-01-31 23:07:00,
2013-01-31 17:09:00,5.9,0.2,30.29,WNW,303,19.0,24.0,77,0.00,,,0.00,19,Wunderground v.1.15,2013-01-31 23:09:00,
2013-01-31 17:10:00,5.9,0.2,30.29,NW,307,17.0,19.0,77,0.00,,,0.00,19,Wunderground v.1.15,2013-01-31 23:10:00,
2013-01-31 17:12:00,5.8,0.1,30.29,NW,304,20.0,21.0,77,0.00,,,0.00,21,Wunderground v.1.15,2013-01-31 23:12:00,
2013-01-31 17:14:00,5.8,0.1,30.29,WNW,302,24.0,24.0,77,0.00,,,0.00,21,Wunderground v.1.15,2013-01-31 23:14:00,
2013-01-31 17:15:00,5.8,0.1,30.29,WNW,295,16.0,24.0,77,0.00,,,0.00,21,Wunderground v.1.15,2013-01-31 23:15:00,
2013-01-31 17:16:00,5.8,0.1,30.29,WNW,298,19.0,24.0,77,0.00,,,0.00,18,Wunderground v.1.15,2013-01-31 23:16:00,
2013-01-31 17:19:00,5.8,0.1,30.29,NW,311,19.0,24.0,77,0.00,,,0.00,14,Wunderground v.1.15,2013-01-31 23:19:00,
2013-01-31 17:21:00,5.8,0.1,30.30,WNW,300,18.0,22.0,77,0.00,,,0.00,12,Wunderground v.1.15,2013-01-31 23:21:00,
2013-01-31 17:22:00,5.8,-0.1,30.30,NW,306,18.0,22.0,76,0.00,,,0.00,12,Wunderground v.1.15,2013-01-31 23:22:00,
2013-01-31 17:23:00,5.7,-0.2,30.30,NW,305,21.0,24.0,76,0.00,,,0.00,11,Wunderground v.1.15,2013-01-31 23:23:00,
2013-01-31 17:25:00,5.6,-0.3,30.30,WNW,302,18.0,24.0,76,0.00,,,0.00,11,Wunderground v.1.15,2013-01-31 23:25:00,
2013-01-31 17:27:00,5.6,-0.3,30.30,WNW,300,17.0,24.0,76,0.00,,,0.00,9,Wunderground v.1.15,2013-01-31 23:27:00,
2013-01-31 17:28:00,5.6,-0.1,30.30,WNW,292,21.0,24.0,77,0.00,,,0.00,9,Wunderground v.1.15,2013-01-31 23:28:00,
2013-01-31 17:30:00,5.6,-0.1,30.30,WNW,296,20.0,20.0,77,0.00,,,0.00,7,Wunderground v.1.15,2013-01-31 23:30:00,
2013-01-31 17:33:00,5.5,-0.1,30.30,WNW,300,20.0,23.0,77,0.00,,,0.00,5,Wunderground v.1.15,2013-01-31 23:33:00,
2013-01-31 17:35:00,5.5,-0.1,30.30,WNW,296,18.0,23.0,77,0.00,,,0.00,0,Wunderground v.1.15,2013-01-31 23:35:00,
2013-01-31 17:36:00,5.5,-0.1,30.30,WNW,293,19.0,23.0,77,0.00,,,0.00,0,Wunderground v.1.15,2013-01-31 23:36:00,
2013-01-31 17:37:00,5.5,-0.1,30.30,WNW,300,22.0,23.0,77,0.00,,,0.00,0,Wunderground v.1.15,2013-01-31 23:37:00,
2013-01-31 17:39:00,5.5,-0.1,30.31,WNW,296,22.0,23.0,77,0.00,,,0.00,0,Wunderground v.1.15,2013-01-31 23:39:00,
2013-01-31 17:41:00,5.5,-0.1,30.31,WNW,294,21.0,21.0,77,0.00,,,0.00,0,Wunderground v.1.15,2013-01-31 23:41:00,
2013-01-31 17:43:00,5.5,-0.1,30.31,WNW,289,18.0,22.0,77,0.00,,,0.00,0,Wunderground v.1.15,2013-01-31 23:43:00,
2013-01-31 17:44:00,5.5,-0.1,30.31,WNW,297,18.0,22.0,77,0.00,,,0.00,0,Wunderground v.1.15,2013-01-31 23:44:00,
2013-01-31 17:47:00,5.5,-0.1,30.31,WNW,292,17.0,22.0,77,0.00,,,0.00,0,Wunderground v.1.15,2013-01-31 23:47:00,
2013-01-31 17:48:00,5.4,-0.2,30.31,WNW,295,21.0,22.0,77,0.00,,,0.00,0,Wunderground v.1.15,2013-01-31 23:48:00,
2013-01-31 17:49:00,5.4,-0.2,30.31,WNW,300,19.0,22.0,77,0.00,,,0.00,0,Wunderground v.1.15,2013-01-31 23:49:00,
2013-01-31 17:50:00,5.4,-0.2,30.31,WNW,301,22.0,22.0,77,0.00,,,0.00,0,Wunderground v.1.15,2013-01-31 23:50:00,
2013-01-31 17:53:00,5.3,-0.6,30.31,WNW,297,18.0,23.0,76,0.00,,,0.00,0,Wunderground v.1.15,2013-01-31 23:53:00,
2013-01-31 17:54:00,5.3,-0.6,30.31,WNW,298,19.0,23.0,76,0.00,,,0.00,0,Wunderground v.1.15,2013-01-31 23:54:00,
2013-01-31 17:55:00,5.3,-0.6,30.32,WNW,294,22.0,23.0,76,0.00,,,0.00,0,Wunderground v.1.15,2013-01-31 23:55:00,
2013-01-31 17:59:00,5.2,-0.7,30.32,WNW,292,16.0,23.0,76,0.00,,,0.00,0,Wunderground v.1.15,2013-01-31 23:59:00,
2013-01-31 18:00:00,5.2,-0.7,30.32,WNW,298,16.0,19.0,76,0.00,,,0.00,0,Wunderground v.1.15,2013-02-01 00:00:00,
2013-01-31 18:01:00,5.2,-0.7,30.32,WNW,302,16.0,19.0,76,0.00,,,0.00,0,Wunderground v.1.15,2013-02-01 00:01:00,
2013-01-31 18:02:00,5.2,-0.7,30.32,WNW,299,19.0,19.0,76,0.00,,,0.00,0,Wunderground v.1.15,2013-02-01 00:02:00,
2013-01-31 18:04:00,5.2,-0.7,30.32,WNW,294,21.0,21.0,76,0.00,,,0.00,0,Wunderground v.1.15,2013-02-01 00:04:00,
2013-01-31 18:06:00,5.1,-0.8,30.32,WNW,286,21.0,21.0,76,0.00,,,0.00,0,Wunderground v.1.15,2013-02-01 00:06:00,
2013-01-31 18:07:00,5.1,-0.8,30.32,WNW,286,17.0,21.0,76,0.00,,,0.00,0,Wunderground v.1.15,2013-02-01 00:07:00,
2013-01-31 18:10:00,5.1,-0.8,30.32,WNW,296,21.0,23.0,76,0.00,,,0.00,0,Wunderground v.1.15,2013-02-01 00:10:00,
2013-01-31 18:11:00,5.1,-0.8,30.32,WNW,295,18.0,23.0,76,0.00,,,0.00,0,Wunderground v.1.15,2013-02-01 00:11:00,
2013-01-31 18:13:00,5.0,-0.9,30.32,WNW,296,17.0,23.0,76,0.00,,,0.00,0,Wunderground v.1.15,2013-02-01 00:13:00,
2013-01-31 18:16:00,5.0,-0.9,30.32,WNW,298,18.0,23.0,76,0.00,,,0.00,0,Wunderground v.1.15,2013-02-01 00:16:00,
2013-01-31 18:17:00,5.0,-0.9,30.32,WNW,302,17.0,23.0,76,0.00,,,0.00,0,Wunderground v.1.15,2013-02-01 00:17:00,
2013-01-31 18:18:00,5.0,-0.9,30.32,WNW,296,18.0,23.0,76,0.00,,,0.00,0,Wunderground v.1.15,2013-02-01 00:18:00,
2013-01-31 18:21:00,4.9,-1.0,30.32,WNW,302,18.0,19.0,76,0.00,,,0.00,0,Wunderground v.1.15,2013-02-01 00:21:00,
2013-01-31 18:24:00,4.9,-1.0,30.32,NW,311,17.0,20.0,76,0.00,,,0.00,0,Wunderground v.1.15,2013-02-01 00:24:00,
2013-01-31 18:26:00,4.9,-1.0,30.32,NW,309,16.0,21.0,76,0.00,,,0.00,0,Wunderground v.1.15,2013-02-01 00:26:00,
2013-01-31 18:31:00,4.8,-1.1,30.32,WNW,294,18.0,18.0,76,0.00,,,0.00,0,Wunderground v.1.15,2013-02-01 00:31:00,
2013-01-31 18:32:00,4.8,-1.1,30.32,NW,308,17.0,18.0,76,0.00,,,0.00,0,Wunderground v.1.15,2013-02-01 00:32:00,
2013-01-31 18:34:00,4.7,-1.2,30.32,WNW,301,12.0,18.0,76,0.00,,,0.00,0,Wunderground v.1.15,2013-02-01 00:34:00,
2013-01-31 18:37:00,4.7,-1.2,30.32,WNW,299,13.0,19.0,76,0.00,,,0.00,0,Wunderground v.1.15,2013-02-01 00:37:00,
2013-01-31 18:38:00,4.7,-1.2,30.33,WNW,292,16.0,19.0,76,0.00,,,0.00,0,Wunderground v.1.15,2013-02-01 00:38:00,
2013-01-31 18:42:00,4.7,-1.2,30.33,WNW,290,18.0,20.0,76,0.00,,,0.00,0,Wunderground v.1.15,2013-02-01 00:42:00,
2013-01-31 18:43:00,4.6,-1.0,30.33,WNW,299,17.0,20.0,77,0.00,,,0.00,0,Wunderground v.1.15,2013-02-01 00:43:00,
2013-01-31 18:44:00,4.6,-1.3,30.33,WNW,297,17.0,20.0,76,0.00,,,0.00,0,Wunderground v.1.15,2013-02-01 00:44:00,
2013-01-31 18:48:00,4.6,-1.3,30.33,WNW,302,15.0,21.0,76,0.00,,,0.00,0,Wunderground v.1.15,2013-02-01 00:48:00,
2013-01-31 18:52:00,4.5,-1.4,30.33,WNW,300,17.0,18.0,76,0.00,,,0.00,0,Wunderground v.1.15,2013-02-01 00:52:00,
2013-01-31 18:53:00,4.4,-1.5,30.33,WNW,299,16.0,18.0,76,0.00,,,0.00,0,Wunderground v.1.15,2013-02-01 00:53:00,
2013-01-31 18:54:00,4.4,-1.5,30.33,WNW,292,16.0,18.0,76,0.00,,,0.00,0,Wunderground v.1.15,2013-02-01 00:54:00,
2013-01-31 18:55:00,4.4,-1.5,30.33,WNW,294,18.0,18.0,76,0.00,,,0.00,0,Wunderground v.1.15,2013-02-01 00:55:00,
2013-01-31 18:58:00,4.3,-1.6,30.33,NW,316,16.0,20.0,76,0.00,,,0.00,0,Wunderground v.1.15,2013-02-01 00:58:00,
2013-01-31 18:59:00,4.3,-1.6,30.33,NW,305,18.0,20.0,76,0.00,,,0.00,0,Wunderground v.1.15,2013-02-01 00:59:00,
2013-01-31 19:00:00,4.3,-1.6,30.33,WNW,288,17.0,20.0,76,0.00,,,0.00,0,Wunderground v.1.15,2013-02-01 01:00:00,
2013-01-31 19:01:00,4.3,-1.6,30.33,NW,304,18.0,22.0,76,0.00,,,0.00,0,Wunderground v.1.15,2013-02-01 01:01:00,
2013-01-31 19:05:00,4.2,-1.7,30.33,NW,304,15.0,22.0,76,0.00,,,0.00,0,Wunderground v.1.15,2013-02-01 01:05:00,
2013-01-31 19:07:00,4.2,-1.7,30.33,WNW,297,16.0,22.0,76,0.00,,,0.00,0,Wunderground v.1.15,2013-02-01 01:07:00,
2013-01-31 19:12:00,4.2,-1.7,30.33,WNW,300,16.0,18.0,76,0.00,,,0.00,0,Wunderground v.1.15,2013-02-01 01:12:00,
2013-01-31 19:13:00,4.1,-1.8,30.34,WNW,301,18.0,18.0,76,0.00,,,0.00,0,Wunderground v.1.15,2013-02-01 01:13:00,
2013-01-31 19:14:00,4.1,-1.8,30.33,WNW,297,17.0,18.0,76,0.00,,,0.00,0,Wunderground v.1.15,2013-02-01 01:14:00,
2013-01-31 19:18:00,4.1,-1.8,30.34,WNW,300,14.0,19.0,76,0.00,,,0.00,0,Wunderground v.1.15,2013-02-01 01:18:00,
2013-01-31 19:20:00,4.0,-1.9,30.34,WNW,302,18.0,18.0,76,0.00,,,0.00,0,Wunderground v.1.15,2013-02-01 01:20:00,
2013-01-31 19:23:00,4.0,-1.9,30.34,WNW,292,18.0,20.0,76,0.00,,,0.00,0,Wunderground v.1.15,2013-02-01 01:23:00,
2013-01-31 19:25:00,4.0,-1.9,30.34,WNW,295,17.0,20.0,76,0.00,,,0.00,0,Wunderground v.1.15,2013-02-01 01:25:00,
2013-01-31 19:30:00,3.9,-2.0,30.34,WNW,294,15.0,17.0,76,0.00,,,0.00,0,Wunderground v.1.15,2013-02-01 01:30:00,
2013-01-31 19:31:00,3.8,-2.1,30.34,WNW,300,18.0,19.0,76,0.00,,,0.00,0,Wunderground v.1.15,2013-02-01 01:31:00,
2013-01-31 19:32:00,3.8,-2.1,30.34,WNW,300,16.0,19.0,76,0.00,,,0.00,0,Wunderground v.1.15,2013-02-01 01:32:00,
2013-01-31 19:33:00,3.8,-2.1,30.34,WNW,303,16.0,19.0,76,0.00,,,0.00,0,Wunderground v.1.15,2013-02-01 01:33:00,
2013-01-31 19:36:00,3.8,-2.1,30.34,WNW,302,17.0,19.0,76,0.00,,,0.00,0,Wunderground v.1.15,2013-02-01 01:36:00,
2013-01-31 19:37:00,3.7,-2.2,30.34,WNW,299,18.0,20.0,76,0.00,,,0.00,0,Wunderground v.1.15,2013-02-01 01:37:00,
2013-01-31 19:41:00,3.7,-2.2,30.35,WNW,300,19.0,19.0,76,0.00,,,0.00,0,Wunderground v.1.15,2013-02-01 01:41:00,
2013-01-31 19:42:00,3.6,-2.3,30.35,WNW,300,19.0,19.0,76,0.00,,,0.00,0,Wunderground v.1.15,2013-02-01 01:42:00,
2013-01-31 19:43:00,3.6,-2.3,30.35,WNW,292,21.0,21.0,76,0.00,,,0.00,0,Wunderground v.1.15,2013-02-01 01:43:00,
2013-01-31 19:46:00,3.6,-2.3,30.35,WNW,293,20.0,21.0,76,0.00,,,0.00,0,Wunderground v.1.15,2013-02-01 01:46:00,
2013-01-31 19:48:00,3.5,-2.4,30.35,WNW,294,21.0,21.0,76,0.00,,,0.00,0,Wunderground v.1.15,2013-02-01 01:48:00,
2013-01-31 19:50:00,3.5,-2.4,30.35,WNW,301,15.0,18.0,76,0.00,,,0.00,0,Wunderground v.1.15,2013-02-01 01:50:00,
2013-01-31 19:51:00,3.5,-2.4,30.35,WNW,298,17.0,21.0,76,0.00,,,0.00,0,Wunderground v.1.15,2013-02-01 01:51:00,
2013-01-31 19:53:00,3.4,-2.5,30.35,WNW,294,19.0,21.0,76,0.00,,,0.00,0,Wunderground v.1.15,2013-02-01 01:53:00,
2013-01-31 19:56:00,3.4,-2.5,30.35,WNW,300,17.0,21.0,76,0.00,,,0.00,0,Wunderground v.1.15,2013-02-01 01:56:00,
2013-01-31 19:57:00,3.4,-2.5,30.35,NW,309,16.0,21.0,76,0.00,,,0.00,0,Wunderground v.1.15,2013-02-01 01:57:00,
2013-01-31 19:59:00,3.4,-2.5,30.35,WNW,298,22.0,22.0,76,0.00,,,0.00,0,Wunderground v.1.15,2013-02-01 01:59:00,
2013-01-31 20:01:00,3.4,-2.7,30.36,NW,313,15.0,21.0,75,0.00,,,0.00,0,Wunderground v.1.15,2013-02-01 02:01:00,
2013-01-31 20:04:00,3.3,-2.8,30.36,WNW,290,20.0,21.0,75,0.00,,,0.00,0,Wunderground v.1.15,2013-02-01 02:04:00,
2013-01-31 20:06:00,3.3,-2.8,30.36,WNW,296,19.0,21.0,75,0.00,,,0.00,0,Wunderground v.1.15,2013-02-01 02:06:00,
2013-01-31 20:07:00,3.3,-2.6,30.36,WNW,294,15.0,21.0,76,0.00,,,0.00,0,Wunderground v.1.15,2013-02-01 02:07:00,
2013-01-31 20:09:00,3.2,-2.7,30.36,WNW,296,13.0,21.0,76,0.00,,,0.00,0,Wunderground v.1.15,2013-02-01 02:09:00,
2013-01-31 20:11:00,3.2,-2.7,30.36,WNW,298,17.0,19.0,76,0.00,,,0.00,0,Wunderground v.1.15,2013-02-01 02:11:00,
2013-01-31 20:12:00,3.2,-2.7,30.36,WNW,289,13.0,20.0,76,0.00,,,0.00,0,Wunderground v.1.15,2013-02-01 02:12:00,
2013-01-31 20:14:00,3.2,-2.7,30.36,WNW,298,17.0,20.0,76,0.00,,,0.00,0,Wunderground v.1.15,2013-02-01 02:14:00,
2013-01-31 20:17:00,3.2,-2.7,30.37,WNW,293,14.0,21.0,76,0.00,,,0.00,0,Wunderground v.1.15,2013-02-01 02:17:00,
2013-01-31 20:18:00,3.2,-2.7,30.37,WNW,300,17.0,21.0,76,0.00,,,0.00,0,Wunderground v.1.15,2013-02-01 02:18:00,
2013-01-31 20:20:00,3.1,-2.8,30.37,WNW,300,19.0,20.0,76,0.00,,,0.00,0,Wunderground v.1.15,2013-02-01 02:20:00,
2013-01-31 20:21:00,3.1,-2.8,30.37,WNW,299,19.0,23.0,76,0.00,,,0.00,0,Wunderground v.1.15,2013-02-01 02:21:00,
2013-01-31 20:23:00,3.1,-2.8,30.37,WNW,298,15.0,23.0,76,0.00,,,0.00,0,Wunderground v.1.15,2013-02-01 02:23:00,
2013-01-31 20:25:00,3.1,-2.8,30.37,WNW,298,19.0,23.0,76,0.00,,,0.00,0,Wunderground v.1.15,2013-02-01 02:25:00,
2013-01-31 20:26:00,3.0,-2.9,30.37,WNW,295,19.0,23.0,76,0.00,,,0.00,0,Wunderground v.1.15,2013-02-01 02:26:00,
2013-01-31 20:29:00,3.0,-2.9,30.37,WNW,293,21.0,23.0,76,0.00,,,0.00,0,Wunderground v.1.15,2013-02-01 02:29:00,
2013-01-31 20:30:00,3.0,-2.9,30.37,WNW,292,17.0,20.0,76,0.00,,,0.00,0,Wunderground v.1.15,2013-02-01 02:30:00,
2013-01-31 20:32:00,2.9,-3.0,30.37,WNW,297,16.0,20.0,76,0.00,,,0.00,0,Wunderground v.1.15,2013-02-01 02:32:00,
2013-01-31 20:34:00,2.9,-3.0,30.37,WNW,302,19.0,20.0,76,0.00,,,0.00,0,Wunderground v.1.15,2013-02-01 02:34:00,
2013-01-31 20:36:00,2.9,-2.7,30.37,WNW,298,13.0,20.0,77,0.00,,,0.00,0,Wunderground v.1.15,2013-02-01 02:36:00,
2013-01-31 20:37:00,2.9,-2.7,30.37,WNW,295,18.0,20.0,77,0.00,,,0.00,0,Wunderground v.1.15,2013-02-01 02:37:00,
2013-01-31 20:38:00,2.9,-3.0,30.37,WNW,295,19.0,20.0,76,0.00,,,0.00,0,Wunderground v.1.15,2013-02-01 02:38:00,
2013-01-31 20:41:00,2.8,-3.1,30.37,WNW,295,19.0,19.0,76,0.00,,,0.00,0,Wunderground v.1.15,2013-02-01 02:41:00,
2013-01-31 20:42:00,2.8,-3.1,30.37,WNW,290,18.0,21.0,76,0.00,,,0.00,0,Wunderground v.1.15,2013-02-01 02:42:00,
2013-01-31 20:43:00,2.8,-3.1,30.37,WNW,292,21.0,21.0,76,0.00,,,0.00,0,Wunderground v.1.15,2013-02-01 02:43:00,
2013-01-31 20:44:00,2.8,-3.1,30.38,WNW,296,18.0,21.0,76,0.00,,,0.00,0,Wunderground v.1.15,2013-02-01 02:44:00,
2013-01-31 20:47:00,2.7,-3.1,30.38,WNW,300,16.0,21.0,76,0.00,,,0.00,0,Wunderground v.1.15,2013-02-01 02:47:00,
2013-01-31 20:49:00,2.7,-3.1,30.38,WNW,297,16.0,21.0,76,0.00,,,0.00,0,Wunderground v.1.15,2013-02-01 02:49:00,
2013-01-31 20:51:00,2.6,-3.0,30.38,WNW,296,13.0,17.0,77,0.00,,,0.00,0,Wunderground v.1.15,2013-02-01 02:51:00,
2013-01-31 20:54:00,2.6,-3.0,30.37,WNW,302,14.0,17.0,77,0.00,,,0.00,0,Wunderground v.1.15,2013-02-01 02:54:00,
2013-01-31 20:56:00,2.5,-3.1,30.38,NW,306,16.0,17.0,77,0.00,,,0.00,0,Wunderground v.1.15,2013-02-01 02:56:00,
2013-01-31 20:59:00,2.4,-3.2,30.38,WNW,292,13.0,18.0,77,0.00,,,0.00,0,Wunderground v.1.15,2013-02-01 02:59:00,
2013-01-31 21:01:00,2.4,-3.2,30.38,WNW,296,16.0,16.0,77,0.00,,,0.00,0,Wunderground v.1.15,2013-02-01 03:01:00,
2013-01-31 21:02:00,2.4,-3.2,30.38,WNW,290,18.0,18.0,77,0.00,,,0.00,0,Wunderground v.1.15,2013-02-01 03:02:00,
2013-01-31 21:05:00,2.3,-3.3,30.38,WNW,290,16.0,18.0,77,0.00,,,0.00,0,Wunderground v.1.15,2013-02-01 03:05:00,
2013-01-31 21:07:00,2.3,-3.3,30.39,WNW,294,17.0,20.0,77,0.00,,,0.00,0,Wunderground v.1.15,2013-02-01 03:07:00,
2013-01-31 21:11:00,2.2,-3.4,30.39,WNW,298,17.0,17.0,77,0.00,,,0.00,0,Wunderground v.1.15,2013-02-01 03:11:00,
2013-01-31 21:13:00,2.2,-3.4,30.39,WNW,287,16.0,18.0,77,0.00,,,0.00,0,Wunderground v.1.15,2013-02-01 03:13:00,
2013-01-31 21:14:00,2.2,-3.4,30.39,WNW,294,12.0,18.0,77,0.00,,,0.00,0,Wunderground v.1.15,2013-02-01 03:14:00,
2013-01-31 21:16:00,2.1,-3.5,30.39,WNW,296,14.0,18.0,77,0.00,,,0.00,0,Wunderground v.1.15,2013-02-01 03:16:00,
2013-01-31 21:17:00,2.1,-3.5,30.39,WNW,297,12.0,18.0,77,0.00,,,0.00,0,Wunderground v.1.15,2013-02-01 03:17:00,
2013-01-31 21:18:00,2.1,-3.5,30.39,WNW,292,14.0,18.0,77,0.00,,,0.00,0,Wunderground v.1.15,2013-02-01 03:18:00,
2013-01-31 21:20:00,2.0,-3.6,30.39,WNW,290,14.0,15.0,77,0.00,,,0.00,0,Wunderground v.1.15,2013-02-01 03:20:00,
2013-01-31 21:22:00,2.0,-3.6,30.39,WNW,284,13.0,17.0,77,0.00,,,0.00,0,Wunderground v.1.15,2013-02-01 03:22:00,
2013-01-31 21:23:00,2.0,-3.6,30.39,WNW,292,17.0,17.0,77,0.00,,,0.00,0,Wunderground v.1.15,2013-02-01 03:23:00,
2013-01-31 21:24:00,2.0,-3.6,30.39,WNW,292,15.0,18.0,77,0.00,,,0.00,0,Wunderground v.1.15,2013-02-01 03:24:00,
2013-01-31 21:25:00,1.9,-3.7,30.39,WNW,286,19.0,19.0,77,0.00,,,0.00,0,Wunderground v.1.15,2013-02-01 03:25:00,
2013-01-31 21:28:00,1.9,-3.9,30.40,WNW,290,16.0,20.0,76,0.00,,,0.00,0,Wunderground v.1.15,2013-02-01 03:28:00,
2013-01-31 21:31:00,1.8,-3.7,30.40,WNW,297,22.0,22.0,77,0.00,,,0.00,0,Wunderground v.1.15,2013-02-01 03:31:00,
2013-01-31 21:35:00,1.8,-4.0,30.40,WNW,294,20.0,22.0,76,0.00,,,0.00,0,Wunderground v.1.15,2013-02-01 03:35:00,
2013-01-31 21:36:00,1.7,-4.1,30.40,WNW,296,17.0,22.0,76,0.00,,,0.00,0,Wunderground v.1.15,2013-02-01 03:36:00,
2013-01-31 21:37:00,1.7,-4.1,30.40,WNW,301,14.0,22.0,76,0.00,,,0.00,0,Wunderground v.1.15,2013-02-01 03:37:00,
2013-01-31 21:42:00,1.7,-3.8,30.40,WNW,297,14.0,17.0,77,0.00,,,0.00,0,Wunderground v.1.15,2013-02-01 03:42:00,
2013-01-31 21:44:00,1.7,-3.8,30.40,WNW,293,14.0,18.0,77,0.00,,,0.00,0,Wunderground v.1.15,2013-02-01 03:44:00,
2013-01-31 21:48:00,1.6,-3.9,30.40,WNW,292,12.0,18.0,77,0.00,,,0.00,0,Wunderground v.1.15,2013-02-01 03:48:00,
2013-01-31 21:49:00,1.6,-3.9,30.40,WNW,296,12.0,18.0,77,0.00,,,0.00,0,Wunderground v.1.15,2013-02-01 03:49:00,
2013-01-31 21:53:00,1.5,-4.0,30.40,WNW,294,16.0,19.0,77,0.00,,,0.00,0,Wunderground v.1.15,2013-02-01 03:53:00,
2013-01-31 21:54:00,1.5,-4.0,30.40,WNW,295,17.0,19.0,77,0.00,,,0.00,0,Wunderground v.1.15,2013-02-01 03:54:00,
2013-01-31 21:56:00,1.4,-4.4,30.40,NW,304,15.0,21.0,76,0.00,,,0.00,0,Wunderground v.1.15,2013-02-01 03:56:00,
2013-01-31 21:58:00,1.4,-4.4,30.40,WNW,303,16.0,21.0,76,0.00,,,0.00,0,Wunderground v.1.15,2013-02-01 03:58:00,
2013-01-31 21:59:00,1.4,-4.4,30.40,NW,306,15.0,21.0,76,0.00,,,0.00,0,Wunderground v.1.15,2013-02-01 03:59:00,
2013-01-31 22:01:00,1.3,-4.5,30.40,WNW,297,15.0,17.0,76,0.00,,,0.00,0,Wunderground v.1.15,2013-02-01 04:01:00,
2013-01-31 22:02:00,1.3,-4.5,30.40,WNW,296,16.0,17.0,76,0.00,,,0.00,0,Wunderground v.1.15,2013-02-01 04:02:00,
2013-01-31 22:04:00,1.3,-4.5,30.40,WNW,300,16.0,17.0,76,0.00,,,0.00,0,Wunderground v.1.15,2013-02-01 04:04:00,
2013-01-31 22:06:00,1.3,-4.5,30.40,NW,304,18.0,18.0,76,0.00,,,0.00,0,Wunderground v.1.15,2013-02-01 04:06:00,
2013-01-31 22:09:00,1.2,-4.6,30.40,NW,306,15.0,18.0,76,0.00,,,0.00,0,Wunderground v.1.15,2013-02-01 04:09:00,
2013-01-31 22:11:00,1.1,-4.7,30.40,NW,308,15.0,17.0,76,0.00,,,0.00,0,Wunderground v.1.15,2013-02-01 04:11:00,
2013-01-31 22:12:00,1.1,-4.7,30.40,WNW,299,14.0,17.0,76,0.00,,,0.00,0,Wunderground v.1.15,2013-02-01 04:12:00,
2013-01-31 22:14:00,1.1,-4.7,30.41,WNW,302,14.0,17.0,76,0.00,,,0.00,0,Wunderground v.1.15,2013-02-01 04:14:00,
2013-01-31 22:16:00,1.1,-4.7,30.41,WNW,292,12.0,17.0,76,0.00,,,0.00,0,Wunderground v.1.15,2013-02-01 04:16:00,
2013-01-31 22:18:00,1.0,-4.8,30.41,WNW,303,13.0,17.0,76,0.00,,,0.00,0,Wunderground v.1.15,2013-02-01 04:18:00,
2013-01-31 22:19:00,1.0,-4.8,30.41,WNW,299,13.0,17.0,76,0.00,,,0.00,0,Wunderground v.1.15,2013-02-01 04:19:00,
2013-01-31 22:20:00,1.0,-4.8,30.41,WNW,301,15.0,15.0,76,0.00,,,0.00,0,Wunderground v.1.15,2013-02-01 04:20:00,
2013-01-31 22:23:00,1.0,-4.8,30.41,WNW,298,13.0,15.0,76,0.00,,,0.00,0,Wunderground v.1.15,2013-02-01 04:23:00,
2013-01-31 22:24:00,1.0,-4.8,30.41,WNW,291,10.0,15.0,76,0.00,,,0.00,0,Wunderground v.1.15,2013-02-01 04:24:00,
2013-01-31 22:25:00,1.0,-4.8,30.41,WNW,296,12.0,15.0,76,0.00,,,0.00,0,Wunderground v.1.15,2013-02-01 04:25:00,
2013-01-31 22:27:00,1.0,-4.5,30.41,WNW,294,13.0,15.0,77,0.00,,,0.00,0,Wunderground v.1.15,2013-02-01 04:27:00,
2013-01-31 22:29:00,1.0,-4.5,30.41,WNW,292,13.0,15.0,77,0.00,,,0.00,0,Wunderground v.1.15,2013-02-01 04:29:00,
2013-01-31 22:30:00,1.0,-4.5,30.41,WNW,289,12.0,12.0,77,0.00,,,0.00,0,Wunderground v.1.15,2013-02-01 04:30:00,
2013-01-31 22:31:00,0.9,-4.6,30.41,WNW,297,13.0,13.0,77,0.00,,,0.00,0,Wunderground v.1.15,2013-02-01 04:31:00,
2013-01-31 22:33:00,0.9,-4.6,30.41,WNW,299,11.0,13.0,77,0.00,,,0.00,0,Wunderground v.1.15,2013-02-01 04:33:00,
2013-01-31 22:34:00,0.9,-4.6,30.41,WNW,296,15.0,15.0,77,0.00,,,0.00,0,Wunderground v.1.15,2013-02-01 04:34:00,
2013-01-31 22:36:00,0.9,-4.6,30.41,WNW,295,10.0,15.0,77,0.00,,,0.00,0,Wunderground v.1.15,2013-02-01 04:36:00,
2013-01-31 22:38:00,0.9,-4.6,30.41,WNW,298,14.0,17.0,77,0.00,,,0.00,0,Wunderground v.1.15,2013-02-01 04:38:00,
2013-01-31 22:39:00,0.9,-4.6,30.41,WNW,298,15.0,17.0,77,0.00,,,0.00,0,Wunderground v.1.15,2013-02-01 04:39:00,
2013-01-31 22:40:00,0.9,-4.6,30.41,WNW,300,11.0,13.0,77,0.00,,,0.00,0,Wunderground v.1.15,2013-02-01 04:40:00,
2013-01-31 22:42:00,0.8,-4.7,30.41,WNW,303,13.0,17.0,77,0.00,,,0.00,0,Wunderground v.1.15,2013-02-01 04:42:00,
2013-01-31 22:44:00,0.8,-4.7,30.41,WNW,298,14.0,17.0,77,0.00,,,0.00,0,Wunderground v.1.15,2013-02-01 04:44:00,
2013-01-31 22:45:00,0.8,-4.7,30.41,NW,304,12.0,17.0,77,0.00,,,0.00,0,Wunderground v.1.15,2013-02-01 04:45:00,
2013-01-31 22:46:00,0.8,-4.7,30.41,WNW,298,11.0,17.0,77,0.00,,,0.00,0,Wunderground v.1.15,2013-02-01 04:46:00,
2013-01-31 22:49:00,0.8,-4.7,30.41,WNW,297,11.0,17.0,77,0.00,,,0.00,0,Wunderground v.1.15,2013-02-01 04:49:00,
2013-01-31 22:50:00,0.8,-4.7,30.41,NW,304,10.0,13.0,77,0.00,,,0.00,0,Wunderground v.1.15,2013-02-01 04:50:00,
2013-01-31 22:51:00,0.8,-4.7,30.41,WNW,302,13.0,13.0,77,0.00,,,0.00,0,Wunderground v.1.15,2013-02-01 04:51:00,
2013-01-31 22:54:00,0.7,-4.8,30.41,NW,307,12.0,13.0,77,0.00,,,0.00,0,Wunderground v.1.15,2013-02-01 04:54:00,
2013-01-31 22:55:00,0.7,-4.8,30.41,NW,312,15.0,15.0,77,0.00,,,0.00,0,Wunderground v.1.15,2013-02-01 04:55:00,
2013-01-31 22:56:00,0.7,-4.8,30.41,WNW,300,13.0,15.0,77,0.00,,,0.00,0,Wunderground v.1.15,2013-02-01 04:56:00,
2013-01-31 23:00:00,0.6,-4.9,30.41,NW,304,15.0,15.0,77,0.00,,,0.00,0,Wunderground v.1.15,2013-02-01 05:00:00,
2013-01-31 23:03:00,0.6,-4.9,30.41,WNW,302,16.0,18.0,77,0.00,,,0.00,0,Wunderground v.1.15,2013-02-01 05:03:00,
2013-01-31 23:05:00,0.5,-5.0,30.41,NW,307,12.0,18.0,77,0.00,,,0.00,0,Wunderground v.1.15,2013-02-01 05:05:00,
2013-01-31 23:06:00,0.5,-5.0,30.41,NW,304,15.0,18.0,77,0.00,,,0.00,0,Wunderground v.1.15,2013-02-01 05:06:00,
2013-01-31 23:09:00,0.5,-5.0,30.41,WNW,302,11.0,18.0,77,0.00,,,0.00,0,Wunderground v.1.15,2013-02-01 05:09:00,
2013-01-31 23:11:00,0.5,-5.0,30.41,NW,312,14.0,14.0,77,0.00,,,0.00,0,Wunderground v.1.15,2013-02-01 05:11:00,
2013-01-31 23:12:00,0.4,-5.1,30.41,NW,311,12.0,15.0,77,0.00,,,0.00,0,Wunderground v.1.15,2013-02-01 05:12:00,
2013-01-31 23:17:00,0.4,-5.1,30.41,NW,308,12.0,15.0,77,0.00,,,0.00,0,Wunderground v.1.15,2013-02-01 05:17:00,
2013-01-31 23:18:00,0.4,-5.1,30.41,NW,305,12.0,15.0,77,0.00,,,0.00,0,Wunderground v.1.15,2013-02-01 05:18:00,
2013-01-31 23:22:00,0.4,-5.1,30.41,NW,305,14.0,14.0,77,0.00,,,0.00,0,Wunderground v.1.15,2013-02-01 05:22:00,
2013-01-31 23:24:00,0.4,-5.1,30.41,WNW,302,14.0,14.0,77,0.00,,,0.00,0,Wunderground v.1.15,2013-02-01 05:24:00,
2013-01-31 23:25:00,0.3,-5.2,30.41,NW,315,14.0,14.0,77,0.00,,,0.00,0,Wunderground v.1.15,2013-02-01 05:25:00,
2013-01-31 23:27:00,0.3,-5.2,30.41,NW,320,14.0,14.0,77,0.00,,,0.00,0,Wunderground v.1.15,2013-02-01 05:27:00,
2013-01-31 23:29:00,0.3,-5.2,30.41,NW,317,14.0,15.0,77,0.00,,,0.00,0,Wunderground v.1.15,2013-02-01 05:29:00,
2013-01-31 23:30:00,0.2,-5.3,30.41,WNW,301,18.0,18.0,77,0.00,,,0.00,0,Wunderground v.1.15,2013-02-01 05:30:00,
2013-01-31 23:31:00,0.2,-5.3,30.41,NW,309,12.0,18.0,77,0.00,,,0.00,0,Wunderground v.1.15,2013-02-01 05:31:00,
2013-01-31 23:32:00,0.2,-5.6,30.41,NW,307,13.0,18.0,76,0.00,,,0.00,0,Wunderground v.1.15,2013-02-01 05:32:00,
2013-01-31 23:35:00,0.1,-5.4,30.41,NW,315,12.0,18.0,77,0.00,,,0.00,0,Wunderground v.1.15,2013-02-01 05:35:00,
2013-01-31 23:36:00,0.2,-5.3,30.41,WNW,302,14.0,18.0,77,0.00,,,0.00,0,Wunderground v.1.15,2013-02-01 05:36:00,
2013-01-31 23:38:00,0.1,-5.4,30.41,NW,311,15.0,18.0,77,0.00,,,0.00,0,Wunderground v.1.15,2013-02-01 05:38:00,
2013-01-31 23:41:00,0.1,-5.4,30.41,WNW,301,12.0,14.0,77,0.00,,,0.00,0,Wunderground v.1.15,2013-02-01 05:41:00,
2013-01-31 23:43:00,0.1,-5.4,30.41,NW,312,13.0,16.0,77,0.00,,,0.00,0,Wunderground v.1.15,2013-02-01 05:43:00,
2013-01-31 23:48:00,0.0,-5.5,30.42,NW,310,11.0,16.0,77,0.00,,,0.00,0,Wunderground v.1.15,2013-02-01 05:48:00,
2013-01-31 23:49:00,0.0,-5.5,30.42,NW,317,13.0,16.0,77,0.00,,,0.00,0,Wunderground v.1.15,2013-02-01 05:49:00,
2013-01-31 23:52:00,0.0,-5.5,30.42,NW,319,12.0,13.0,77,0.00,,,0.00,0,Wunderground v.1.15,2013-02-01 05:52:00,
2013-01-31 23:55:00,0.0,-5.5,30.42,NW,309,12.0,15.0,77,0.00,,,0.00,0,Wunderground v.1.15,2013-02-01 05:55:00,
2013-01-31 23:56:00,0.0,-5.5,30.42,NW,308,10.0,15.0,77,0.00,,,0.00,0,Wunderground v.1.15,2013-02-01 05:56:00,
2013-01-31 23:57:00,0.0,-5.5,30.42,NW,308,10.0,15.0,77,0.00,,,0.00,0,Wunderground v.1.15,2013-02-01 05:57:00,